K5BWX-2 Weather Reports


Display with metric or nautical units.
time (UTC)temp
F
wind
direction
speed
MPH
gust
MPH
rain 1hr
in
rain 24hr
in
rain mn
in
humidity
%
barometer
mb
20260506105942 61 213 7.0 22.0 0.16 0.28 0.28 94 1011.9
20260506105841 61 217 7.0 22.0 0.15 0.27 0.28 94 1012.0
20260506105741 61 190 7.0 22.0 0.15 0.27 0.27 94 1011.9
20260506105642 61 207 7.0 22.0 0.15 0.27 0.27 94 1011.9
20260506105542 61 231 7.0 22.0 0.15 0.27 0.27 94 1011.9
20260506105515 61 195 7.0 22.0 0.13 0.24 0.25 94 1012.2
20260506105504 61 190 7.0 22.0 0.13 0.25 0.25 94 1012.2
20260506105237 61 207 7.0 20.0 0.13 0.24 0.24 94 1012.0
20260506105139 61 192 7.0 20.0 0.12 0.23 0.24 94 1012.1
20260506105057 61 200 7.0 20.0 0.14 0.23 0.23 94 1011.9
20260506105051 61 212 7.0 17.0 0.15 0.23 0.23 94 1011.9
20260506105040 61 195 7.0 20.0 0.13 0.23 0.23 94 1011.9
20260506105018 61 219 7.0 20.0 0.13 0.23 0.23 94 1011.9
20260506104638 61 214 7.0 17.0 0.14 0.22 0.22 94 1011.8
20260506104534 61 240 7.0 17.0 0.14 0.22 0.22 94 1011.7
20260506104435 61 196 7.0 17.0 0.13 0.21 0.22 94 1011.8
20260506104334 61 180 7.0 16.0 0.14 0.21 0.21 94 1011.8
20260506104310 61 194 7.0 19.0 0.13 0.20 0.21 94 1011.8
20260506104258 61 205 7.0 19.0 0.14 0.21 0.21 94 1011.8
20260506104034 61 250 7.0 19.0 0.14 0.20 0.20 94 1011.8
20260506103934 61 171 7.0 19.0 0.14 0.20 0.20 94 1011.8
20260506103835 61 173 7.0 19.0 0.13 0.19 0.20 94 1011.9
20260506103734 61 198 6.0 19.0 0.14 0.19 0.19 94 1011.8
20260506103634 61 217 6.0 19.0 0.14 0.19 0.19 94 1011.8
20260506103610 61 215 7.0 19.0 0.14 0.19 0.19 94 1011.8
20260506103558 61 181 7.0 19.0 0.14 0.19 0.19 94 1011.9
20260506103334 61 222 7.0 19.0 0.14 0.19 0.19 94 1011.9
20260506103235 61 199 7.0 19.0 0.13 0.18 0.19 94 1011.9
20260506103135 60 208 7.0 19.0 0.13 0.18 0.18 94 1011.8
20260506103058 60 202 7.0 17.0 0.12 0.17 0.17 94 1011.5
20260506103048 61 198 7.0 17.0 0.13 0.18 0.18 94 1011.7
20260506103025 60 217 7.0 17.0 0.12 0.17 0.18 93 1011.7
20260506102859 60 193 7.0 17.0 0.12 0.17 0.17 94 1011.5
20260506102635 60 200 7.0 17.0 0.12 0.16 0.17 94 1011.5
20260506102534 60 200 7.0 17.0 0.12 0.16 0.16 94 1011.5
20260506102507 61 206 7.0 22.0 0.12 0.16 0.16 94 1011.5
20260506102455 60 193 7.0 17.0 0.12 0.16 0.16 94 1011.7
20260506102233 60 210 7.0 22.0 0.11 0.15 0.16 94 1011.7
20260506102135 60 200 7.0 22.0 0.11 0.15 0.15 94 1011.5
20260506102035 61 221 7.0 22.0 0.11 0.15 0.15 94 1011.5
20260506101935 61 213 7.0 22.0 0.10 0.14 0.15 94 1011.7
20260506101834 61 198 7.0 22.0 0.10 0.14 0.14 94 1011.5
20260506101734 61 206 7.0 22.0 0.10 0.14 0.14 94 1011.4
20260506101706 61 236 7.0 22.0 0.10 0.14 0.14 94 1011.4
20260506101657 61 217 7.0 22.0 0.10 0.14 0.14 94 1011.4
20260506101434 61 194 7.0 22.0 0.09 0.13 0.14 94 1011.4
20260506101333 61 213 7.0 16.0 0.09 0.13 0.13 94 1011.4
20260506101309 61 194 7.0 21.0 0.11 0.13 0.13 94 1011.3
20260506101257 61 211 7.0 16.0 0.10 0.13 0.13 94 1011.4
20260506101033 61 199 8.0 21.0 0.11 0.13 0.13 94 1011.2
20260506100933 61 192 8.0 21.0 0.11 0.13 0.13 94 1011.2
20260506100841 61 166 8.0 21.0 0.11 0.13 0.13 94 1011.2
20260506100734 61 207 8.0 21.0 0.12 0.13 0.13 94 1011.2
20260506100635 61 192 7.0 21.0 0.11 0.12 0.13 94 1011.1
20260506100533 61 207 7.0 21.0 0.11 0.12 0.12 94 1011.0
20260506100434 61 165 7.0 21.0 0.11 0.12 0.12 94 1011.0
20260506100333 61 195 7.0 21.0 0.11 0.12 0.12 94 1011.0
20260506100233 61 146 7.0 21.0 0.11 0.12 0.12 94 1010.8
20260506100133 61 192 6.0 17.0 0.11 0.12 0.12 94 1010.8
20260506100035 61 188 6.0 17.0 0.12 0.12 0.12 94 1010.9
20260506100013 61 194 6.0 18.0 0.12 0.12 0.12 93 1011.0
20260506100009 61 234 6.0 18.0 0.12 0.12 0.12 93 1011.0
20260506100003 61 212 6.0 18.0 0.12 0.12 0.12 93 1011.1
20260506095948 61 206 6.0 17.0 0.12 0.12 0.12 93 1010.9
20260506095928 61 244 6.0 17.0 0.12 0.12 0.12 93 1010.9
20260506095428 61 191 7.0 18.0 0.11 0.11 0.11 93 1011.1
20260506095329 61 186 7.0 18.0 0.11 0.11 0.11 93 1011.2
20260506095227 61 219 7.0 18.0 0.11 0.11 0.11 93 1011.2
20260506095127 61 172 7.0 18.0 0.10 0.10 0.10 93 1011.4
20260506095028 61 200 7.0 18.0 0.10 0.10 0.10 93 1011.3
20260506095002 61 198 7.0 18.0 0.09 0.09 0.09 93 1011.3
20260506094951 61 192 7.0 18.0 0.10 0.10 0.10 93 1011.3
20260506094728 61 180 7.0 17.0 0.08 0.08 0.09 93 1011.4
20260506094658 61 184 7.0 17.0 0.08 0.08 0.08 93 1011.4
20260506094643 61 213 7.0 17.0 0.08 0.08 0.08 93 1011.4
20260506094420 61 211 7.0 17.0 0.07 0.07 0.08 93 1011.3
20260506094318 61 205 6.0 17.0 0.07 0.07 0.07 93 1011.3
20260506094251 61 187 6.0 16.0 0.06 0.06 0.07 92 1011.3
20260506094241 61 203 6.0 17.0 0.07 0.07 0.07 92 1011.3
20260506094013 61 219 6.0 16.0 0.06 0.06 0.06 92 1011.3
20260506093912 61 204 6.0 16.0 0.06 0.06 0.06 92 1011.2
20260506093812 61 178 7.0 20.0 0.06 0.06 0.06 92 1011.2
20260506093712 61 194 7.0 20.0 0.05 0.05 0.06 92 1011.2
20260506093607 61 198 6.0 20.0 0.05 0.05 0.05 92 1011.2
20260506093509 61 166 6.0 20.0 0.05 0.05 0.05 92 1011.1
20260506093407 61 194 6.0 20.0 0.05 0.05 0.05 92 1011.2
20260506093309 61 200 6.0 20.0 0.05 0.05 0.05 92 1011.2
20260506093206 61 191 7.0 20.0 0.05 0.05 0.05 91 1011.2
20260506093053 61 178 7.0 20.0 0.05 0.05 0.05 91 1011.1
20260506093042 62 221 7.0 18.0 0.04 0.04 0.04 91 1011.2
20260506093036 62 200 7.0 18.0 0.05 0.05 0.05 91 1011.3
20260506093018 61 187 7.0 20.0 0.05 0.05 0.05 91 1011.2
20260506093000 62 183 7.0 20.0 0.05 0.05 0.05 91 1011.2
20260506092712 62 215 7.0 18.0 0.04 0.04 0.04 91 1011.2
20260506092447 62 206 7.0 18.0 0.04 0.04 0.04 91 1011.2
20260506092347 62 218 8.0 19.0 0.04 0.04 0.04 91 1011.2
20260506092246 62 224 8.0 25.0 0.04 0.04 0.04 91 1011.2
20260506092146 62 215 8.0 25.0 0.04 0.04 0.04 91 1011.2
20260506092041 62 207 8.0 25.0 0.04 0.04 0.04 91 1011.1
20260506091943 62 204 8.0 25.0 0.04 0.04 0.04 91 1011.1
20260506091841 62 207 9.0 27.0 0.04 0.04 0.04 91 1011.2
20260506091739 62 209 9.0 27.0 0.04 0.04 0.04 91 1011.2
20260506091640 62 192 9.0 28.0 0.04 0.04 0.04 91 1011.2
20260506091608 62 205 9.0 28.0 0.04 0.04 0.04 90 1011.0
20260506091555 62 193 9.0 28.0 0.04 0.04 0.04 91 1011.2
20260506091401 62 190 9.0 28.0 0.03 0.03 0.03 90 1011.3
20260506091351 62 192 9.0 28.0 0.04 0.04 0.04 90 1011.2
20260506091130 62 194 9.0 28.0 0.02 0.02 0.03 90 1011.2
20260506091025 62 282 8.0 28.0 0.02 0.02 0.02 90 1011.1
20260506090925 62 228 8.0 28.0 0.02 0.02 0.02 90 1011.1
20260506090824 62 236 8.0 28.0 0.02 0.02 0.02 89 1010.9
20260506090723 62 181 8.0 28.0 0.01 0.01 0.02 89 1010.8
20260506090624 62 208 8.0 22.0 0.01 0.01 0.01 89 1010.5
20260506090550 63 173 7.0 22.0 0.01 0.01 0.01 88 1010.8
20260506090539 62 196 8.0 22.0 0.01 0.01 0.01 89 1010.7
20260506090353 63 258 7.0 21.0 0.01 0.01 0.01 87 1011.0
20260506090341 63 197 7.0 21.0 0.01 0.01 0.01 88 1011.1
20260506090118 63 202 8.0 26.0 0.00 0.00 0.00 87 1010.9
20260506090009 63 212 8.0 26.0 0.00 0.00 0.00 86 1010.8
20260506085910 64 209 8.0 26.0 0.00 0.00 0.00 86 1010.9
20260506085810 64 167 8.0 26.0 0.00 0.00 0.00 85 1010.9
20260506085709 64 205 8.0 26.0 0.00 0.00 0.00 85 1010.8
20260506085607 64 194 8.0 26.0 0.00 0.00 0.00 84 1010.8
20260506085507 64 217 8.0 26.0 0.00 0.00 0.00 84 1010.6
20260506085409 64 217 9.0 26.0 0.00 0.00 0.00 84 1010.5
20260506085307 65 215 8.0 26.0 0.00 0.00 0.00 83 1010.6
20260506085208 65 185 9.0 26.0 0.00 0.00 0.00 83 1010.5
20260506085106 65 232 8.0 23.0 0.00 0.00 0.00 83 1010.1
20260506085007 65 204 8.0 23.0 0.00 0.00 0.00 82 1010.3
20260506084922 65 225 7.0 23.0 0.00 0.00 0.00 80 1010.1
20260506084917 65 225 7.0 23.0 0.00 0.00 0.00 80 1009.8
20260506084907 65 198 8.0 23.0 0.00 0.00 0.00 82 1010.1
20260506084900 65 177 7.0 23.0 0.00 0.00 0.00 80 1009.8
20260506084855 65 173 7.0 23.0 0.00 0.00 0.00 81 1009.6
20260506084835 65 204 8.0 23.0 0.00 0.00 0.00 82 1010.0
20260506084814 65 194 7.0 23.0 0.00 0.00 0.00 81 1010.0
20260506084535 65 226 7.0 23.0 0.00 0.00 0.00 80 1010.1
20260506084530 65 223 7.0 23.0 0.00 0.00 0.00 80 1010.0
20260506084515 65 200 7.0 23.0 0.00 0.00 0.00 81 1009.7
20260506084452 65 201 7.0 23.0 0.00 0.00 0.00 81 1009.7
20260506084336 65 194 8.0 23.0 0.00 0.00 0.00 80 1009.7
20260506084324 65 205 7.0 23.0 0.00 0.00 0.00 80 1009.8
20260506084302 65 43 7.0 19.0 0.00 0.00 0.00 80 1010.0
20260506084139 65 203 7.0 23.0 0.00 0.00 0.00 80 1010.0
20260506084117 65 250 7.0 23.0 0.00 0.00 0.00 80 1010.0
20260506083941 65 284 7.0 23.0 0.00 0.00 0.00 80 1010.1
20260506083157 65 206 7.0 23.0 0.00 0.00 0.00 80 1009.8
20260506083057 65 263 7.0 27.0 0.00 0.00 0.00 80 1010.0
20260506083004 65 213 7.0 27.0 0.00 0.00 0.00 80 1010.1
20260506082930 65 204 8.0 27.0 0.00 0.00 0.00 80 1010.0
20260506082919 65 199 8.0 27.0 0.00 0.00 0.00 80 1010.1
20260506082658 65 214 8.0 27.0 0.00 0.00 0.00 79 1009.7
20260506082550 65 173 8.0 27.0 0.00 0.00 0.00 79 1010.0
20260506082517 65 183 8.0 27.0 0.00 0.00 0.00 79 1010.1
20260506082503 65 186 8.0 27.0 0.00 0.00 0.00 79 1010.2
20260506082440 65 196 8.0 27.0 0.00 0.00 0.00 79 1010.2
20260506082316 65 229 9.0 27.0 0.00 0.00 0.00 79 1010.0
20260506082047 65 200 8.0 25.0 0.00 0.00 0.00 80 1010.0
20260506081945 65 202 7.0 25.0 0.00 0.00 0.00 80 1010.2
20260506081846 65 246 8.0 25.0 0.00 0.00 0.00 79 1010.2
20260506081745 65 216 7.0 25.0 0.00 0.00 0.00 79 1010.0
20260506081645 65 62 8.0 25.0 0.00 0.00 0.00 79 1010.0
20260506081537 65 217 7.0 25.0 0.00 0.00 0.00 79 1010.0
20260506081514 65 202 7.0 25.0 0.00 0.00 0.00 79 1010.1
20260506081501 65 147 7.0 25.0 0.00 0.00 0.00 79 1009.8
20260506081308 65 199 7.0 19.0 0.00 0.00 0.00 78 1010.1
20260506081258 65 198 7.0 25.0 0.00 0.00 0.00 78 1010.2
20260506081033 65 202 7.0 19.0 0.00 0.00 0.00 78 1010.1
20260506080931 65 204 7.0 19.0 0.00 0.00 0.00 78 1010.0
20260506080830 65 186 7.0 19.0 0.00 0.00 0.00 78 1010.2
20260506080729 65 227 7.0 19.0 0.00 0.00 0.00 78 1010.2
20260506080630 65 232 7.0 20.0 0.00 0.00 0.00 78 1010.2
20260506080525 65 220 7.0 25.0 0.00 0.00 0.00 78 1010.2
20260506080424 65 227 8.0 25.0 0.00 0.00 0.00 78 1010.3
20260506080358 65 190 8.0 25.0 0.00 0.00 0.00 78 1010.2
20260506080346 65 229 8.0 25.0 0.00 0.00 0.00 78 1010.2
20260506080220 65 196 8.0 25.0 0.00 0.00 0.00 78 1010.3
20260506080215 65 188 8.0 25.0 0.00 0.00 0.00 78 1010.2
20260506080154 65 170 8.0 25.0 0.00 0.00 0.00 78 1010.2
20260506073437 65 196 6.0 20.0 0.00 0.00 0.00 76 1009.7
20260506073337 65 212 7.0 20.0 0.00 0.00 0.00 76 1009.7
20260506073237 65 195 7.0 21.0 0.00 0.00 0.00 76 1009.6
20260506073138 65 178 7.0 21.0 0.00 0.00 0.00 76 1009.7
20260506073035 65 217 7.0 21.0 0.00 0.00 0.00 76 1009.7
20260506072945 65 225 7.0 23.0 0.00 0.00 0.00 76 1009.6
20260506072939 64 167 7.0 23.0 0.00 0.00 0.00 76 1009.6
20260506072928 65 187 7.0 21.0 0.00 0.00 0.00 76 1009.7
20260506072906 65 198 7.0 21.0 0.00 0.00 0.00 76 1009.7
20260506072743 65 232 7.0 21.0 0.00 0.00 0.00 76 1009.6
20260506072723 65 217 7.0 23.0 0.00 0.00 0.00 76 1009.6
20260506072556 65 190 7.0 23.0 0.00 0.00 0.00 76 1009.8
20260506072216 64 178 7.0 23.0 0.00 0.00 0.00 76 1009.6
20260506072115 65 205 7.0 23.0 0.00 0.00 0.00 76 1009.6
20260506072016 65 189 7.0 23.0 0.00 0.00 0.00 76 1009.5
20260506071912 64 176 7.0 23.0 0.00 0.00 0.00 76 1009.6
20260506071711 64 197 7.0 23.0 0.00 0.00 0.00 75 1009.6
20260506071622 65 186 7.0 20.0 0.00 0.00 0.00 75 1009.6
20260506071610 65 190 7.0 20.0 0.00 0.00 0.00 75 1009.6
20260506071602 65 199 7.0 20.0 0.00 0.00 0.00 75 1009.7
20260506071542 65 205 7.0 20.0 0.00 0.00 0.00 75 1009.7
20260506071200 65 240 7.0 20.0 0.00 0.00 0.00 75 1009.5
20260506071059 65 195 7.0 20.0 0.00 0.00 0.00 75 1009.5
20260506071001 65 156 7.0 20.0 0.00 0.00 0.00 75 1009.6
20260506070930 65 175 7.0 20.0 0.00 0.00 0.00 75 1009.5
20260506070920 65 330 7.0 20.0 0.00 0.00 0.00 75 1009.4
20260506070701 65 171 7.0 20.0 0.00 0.00 0.00 75 1009.5
20260506070558 65 189 7.0 20.0 0.00 0.00 0.00 75 1009.5
20260506070500 65 232 7.0 20.0 0.00 0.00 0.00 75 1009.4
20260506070400 65 148 7.0 20.0 0.00 0.00 0.00 75 1009.5
20260506070300 65 186 7.0 21.0 0.00 0.00 0.00 75 1009.5
20260506070158 65 198 7.0 21.0 0.00 0.00 0.00 75 1009.6
20260506070132 64 196 7.0 21.0 0.00 0.00 0.00 75 1009.8
20260506070122 65 317 7.0 21.0 0.00 0.00 0.00 75 1009.5
20260506062417 64 203 7.0 21.0 0.00 0.00 0.00 74 1010.2
20260506062406 64 217 7.0 21.0 0.00 0.00 0.00 74 1010.1
20260506062140 64 208 7.0 21.0 0.00 0.00 0.00 74 1010.2
20260506062040 64 142 7.0 21.0 0.00 0.00 0.00 74 1010.3
20260506062013 64 260 6.0 21.0 0.00 0.00 0.00 74 1010.3
20260506062002 64 196 7.0 21.0 0.00 0.00 0.00 74 1010.4
20260506061734 64 165 6.0 21.0 0.00 0.00 0.00 74 1010.4
20260506061632 64 221 6.0 16.0 0.00 0.00 0.00 74 1010.4
20260506061535 64 179 6.0 16.0 0.00 0.00 0.00 74 1010.5
20260506061432 64 215 6.0 17.0 0.00 0.00 0.00 74 1010.6
20260506061334 64 200 6.0 17.0 0.00 0.00 0.00 74 1010.6
20260506061225 64 168 6.0 17.0 0.00 0.00 0.00 74 1010.5
20260506061122 64 223 6.0 17.0 0.00 0.00 0.00 73 1010.6
20260506061023 64 205 7.0 17.0 0.00 0.00 0.00 73 1010.6
20260506060923 64 168 7.0 17.0 0.00 0.00 0.00 74 1010.6
20260506060855 64 175 7.0 18.0 0.00 0.00 0.00 73 1010.6
20260506060843 64 151 6.0 17.0 0.00 0.00 0.00 73 1010.6
20260506060648 64 182 7.0 20.0 0.00 0.00 0.00 73 1010.7
20260506060639 64 179 7.0 20.0 0.00 0.00 0.00 73 1010.6
20260506060418 64 186 7.0 20.0 0.00 0.00 0.00 73 1010.6
20260506060317 64 213 7.0 20.0 0.00 0.00 0.00 73 1010.6
20260506060212 64 194 7.0 20.0 0.00 0.00 0.00 73 1010.6
20260506060110 64 236 7.0 20.0 0.00 0.00 0.00 73 1010.5
20260506051410 64 198 6.0 18.0 0.00 0.00 0.00 73 1011.1
20260506051346 64 203 7.0 18.0 0.00 0.00 0.00 73 1011.0
20260506051334 64 169 7.0 18.0 0.00 0.00 0.00 73 1011.0
20260506051109 64 178 7.0 18.0 0.00 0.00 0.00 73 1010.9
20260506051040 64 211 6.0 18.0 0.00 0.00 0.00 73 1011.1
20260506051029 64 200 7.0 18.0 0.00 0.00 0.00 73 1011.0
20260506050807 64 190 7.0 18.0 0.00 0.00 0.00 74 1011.1
20260506050704 64 207 6.0 18.0 0.00 0.00 0.00 74 1011.1
20260506050636 64 192 6.0 18.0 0.00 0.00 0.00 74 1011.1
20260506050626 64 190 6.0 18.0 0.00 0.00 0.00 74 1011.0
20260506050404 64 215 6.0 18.0 0.00 0.00 0.00 74 1011.1
20260506050305 64 203 6.0 18.0 0.00 0.00 0.00 74 1011.1
20260506050202 64 143 6.0 18.0 0.00 0.00 0.00 74 1011.2
20260506045057 64 206 7.0 20.0 0.00 0.00 0.00 73 1011.2
20260506044957 64 214 7.0 20.0 0.00 0.00 0.00 73 1011.0
20260506044858 64 185 7.0 20.0 0.00 0.00 0.00 73 1011.0
20260506044756 64 196 7.0 20.0 0.00 0.00 0.00 73 1011.2
20260506044651 64 198 7.0 20.0 0.00 0.00 0.00 73 1011.1
20260506044550 64 239 7.0 20.0 0.00 0.00 0.00 73 1011.2
20260506044451 64 233 7.0 20.0 0.00 0.00 0.00 73 1011.2
20260506044350 64 190 7.0 20.0 0.00 0.00 0.00 73 1011.1
20260506044251 64 243 7.0 20.0 0.00 0.00 0.00 73 1011.1
20260506044147 64 205 7.0 20.0 0.00 0.00 0.00 73 1011.1
20260506044047 64 185 6.0 20.0 0.00 0.00 0.00 73 1011.0
20260506043948 64 163 6.0 20.0 0.00 0.00 0.00 73 1011.1
20260506043848 64 178 6.0 20.0 0.00 0.00 0.00 73 1011.1
20260506043747 64 132 6.0 20.0 0.00 0.00 0.00 73 1011.1
20260506043646 64 175 6.0 20.0 0.00 0.00 0.00 73 1011.1
20260506043547 64 216 6.0 20.0 0.00 0.00 0.00 73 1011.0
20260506043445 64 175 6.0 20.0 0.00 0.00 0.00 73 1011.0
20260506043419 63 194 6.0 20.0 0.00 0.00 0.00 74 1011.2
20260506043408 63 215 6.0 20.0 0.00 0.00 0.00 74 1011.0
20260506043147 64 186 6.0 20.0 0.00 0.00 0.00 74 1011.2
20260506043046 64 178 6.0 20.0 0.00 0.00 0.00 73 1011.3
20260506042940 64 166 6.0 20.0 0.00 0.00 0.00 73 1011.3
20260506042910 64 178 7.0 20.0 0.00 0.00 0.00 73 1011.5
20260506042900 64 197 6.0 20.0 0.00 0.00 0.00 73 1011.3
20260506042638 64 161 7.0 20.0 0.00 0.00 0.00 73 1011.4
20260506042539 64 198 7.0 18.0 0.00 0.00 0.00 73 1011.4
20260506042532 64 296 7.0 18.0 0.00 0.00 0.00 73 1011.4
20260506042527 64 207 7.0 18.0 0.00 0.00 0.00 73 1011.3
20260506042507 64 185 7.0 18.0 0.00 0.00 0.00 73 1011.3
20260506042125 64 207 7.0 18.0 0.00 0.00 0.00 73 1011.3
20260506042026 64 174 7.0 18.0 0.00 0.00 0.00 73 1011.3
20260506041927 64 189 6.0 16.0 0.00 0.00 0.00 73 1011.3
20260506041826 64 188 6.0 16.0 0.00 0.00 0.00 73 1011.3
20260506041726 64 178 6.0 16.0 0.00 0.00 0.00 73 1011.4
20260506041625 64 174 6.0 16.0 0.00 0.00 0.00 73 1011.5
20260506041525 64 184 6.0 16.0 0.00 0.00 0.00 73 1011.5
20260506041426 63 226 6.0 17.0 0.00 0.00 0.00 73 1011.4
20260506041327 63 194 6.0 17.0 0.00 0.00 0.00 73 1011.5
20260506041227 63 223 6.0 17.0 0.00 0.00 0.00 73 1011.4
20260506041127 63 212 6.0 17.0 0.00 0.00 0.00 73 1011.5
20260506041025 63 182 6.0 17.0 0.00 0.00 0.00 73 1011.4
20260506040926 63 138 6.0 17.0 0.00 0.00 0.00 73 1011.4
20260506040828 63 121 6.0 17.0 0.00 0.00 0.00 73 1011.4
20260506040720 63 168 6.0 18.0 0.00 0.00 0.00 73 1011.4
20260506040619 63 186 6.0 18.0 0.00 0.00 0.00 73 1011.4
20260506040521 63 211 6.0 18.0 0.00 0.00 0.00 73 1011.4
20260506040420 63 200 6.0 18.0 0.00 0.00 0.00 73 1011.5
20260506040320 64 209 6.0 18.0 0.00 0.00 0.00 73 1011.5
20260506040246 64 193 6.0 18.0 0.00 0.00 0.00 73 1011.4
20260506040236 64 202 6.0 18.0 0.00 0.00 0.00 73 1011.5
20260506040014 64 190 6.0 18.0 0.00 0.00 0.00 73 1011.5
20260506035915 63 188 6.0 18.0 0.00 0.00 0.00 73 1011.4
20260506035814 63 200 6.0 17.0 0.00 0.00 0.00 73 1011.4
20260506035749 63 175 6.0 20.0 0.00 0.00 0.00 73 1011.4
20260506035735 63 204 7.0 20.0 0.00 0.00 0.00 73 1011.4
20260506035510 63 250 6.0 20.0 0.00 0.00 0.00 73 1011.3
20260506035411 63 174 6.0 20.0 0.00 0.00 0.00 73 1011.3
20260506035310 63 189 6.0 20.0 0.00 0.00 0.00 73 1011.3
20260506035247 63 173 7.0 20.0 0.00 0.00 0.00 73 1011.3
20260506035235 63 221 7.0 20.0 0.00 0.00 0.00 73 1011.3
20260506035009 63 187 6.0 20.0 0.00 0.00 0.00 73 1011.3
20260506034944 63 175 6.0 20.0 0.00 0.00 0.00 73 1011.4
20260506034931 63 188 6.0 20.0 0.00 0.00 0.00 73 1011.4
20260506034742 63 174 6.0 18.0 0.00 0.00 0.00 73 1011.5
20260506034732 63 192 6.0 18.0 0.00 0.00 0.00 73 1011.4
20260506034508 63 169 6.0 18.0 0.00 0.00 0.00 73 1011.4
20260506034411 63 182 6.0 18.0 0.00 0.00 0.00 73 1011.4
20260506034309 63 210 6.0 27.0 0.00 0.00 0.00 73 1011.4
20260506034208 63 207 6.0 27.0 0.00 0.00 0.00 73 1011.4
20260506034107 63 165 6.0 27.0 0.00 0.00 0.00 73 1011.5
20260506034008 63 182 6.0 27.0 0.00 0.00 0.00 73 1011.5
20260506033909 63 223 6.0 27.0 0.00 0.00 0.00 73 1011.7
20260506033807 63 190 6.0 27.0 0.00 0.00 0.00 73 1011.5
20260506033709 63 209 6.0 27.0 0.00 0.00 0.00 73 1011.7
20260506033609 63 141 6.0 27.0 0.00 0.00 0.00 73 1011.7
20260506033508 63 222 6.0 27.0 0.00 0.00 0.00 73 1011.5
20260506033408 63 161 6.0 27.0 0.00 0.00 0.00 73 1011.7
20260506033307 63 224 6.0 20.0 0.00 0.00 0.00 73 1011.7
20260506033207 63 290 6.0 20.0 0.00 0.00 0.00 73 1011.5
20260506033109 63 195 6.0 20.0 0.00 0.00 0.00 73 1011.7
20260506033008 63 197 6.0 20.0 0.00 0.00 0.00 73 1011.5
20260506032907 63 168 6.0 20.0 0.00 0.00 0.00 73 1011.8
20260506032807 63 192 6.0 20.0 0.00 0.00 0.00 73 1011.7
20260506032708 63 130 7.0 20.0 0.00 0.00 0.00 73 1011.8
20260506032607 63 226 7.0 20.0 0.00 0.00 0.00 73 1011.8
20260506032534 63 226 6.0 20.0 0.00 0.00 0.00 73 1011.8
20260506032524 63 194 6.0 20.0 0.00 0.00 0.00 73 1011.8
20260506032306 63 164 7.0 20.0 0.00 0.00 0.00 73 1011.7
20260506032203 63 210 7.0 20.0 0.00 0.00 0.00 73 1011.5
20260506032103 63 179 6.0 20.0 0.00 0.00 0.00 73 1011.5
20260506032003 63 242 7.0 20.0 0.00 0.00 0.00 73 1011.5
20260506031906 63 128 7.0 20.0 0.00 0.00 0.00 73 1011.7
20260506031805 63 190 7.0 20.0 0.00 0.00 0.00 73 1011.5
20260506031717 63 177 7.0 20.0 0.00 0.00 0.00 73 1011.5
20260506031704 63 196 7.0 20.0 0.00 0.00 0.00 73 1011.5
20260506031641 63 173 7.0 20.0 0.00 0.00 0.00 73 1011.5
20260506031400 63 193 7.0 20.0 0.00 0.00 0.00 73 1011.5
20260506031259 63 204 6.0 19.0 0.00 0.00 0.00 73 1011.7
20260506031159 63 189 6.0 19.0 0.00 0.00 0.00 73 1011.8
20260506031102 63 188 7.0 21.0 0.00 0.00 0.00 73 1011.7
20260506031001 63 190 7.0 21.0 0.00 0.00 0.00 74 1011.7
20260506030901 63 222 6.0 21.0 0.00 0.00 0.00 74 1011.5
20260506030802 63 177 6.0 21.0 0.00 0.00 0.00 74 1011.5
20260506030659 63 182 7.0 21.0 0.00 0.00 0.00 73 1011.4
20260506030559 63 179 7.0 21.0 0.00 0.00 0.00 74 1011.5
20260506030500 63 248 6.0 21.0 0.00 0.00 0.00 73 1011.3
20260506030435 63 169 7.0 21.0 0.00 0.00 0.00 73 1011.5
20260506030424 63 187 6.0 21.0 0.00 0.00 0.00 73 1011.3
20260506030159 63 188 7.0 21.0 0.00 0.00 0.00 73 1011.4
20260506030131 63 211 6.0 18.0 0.00 0.00 0.00 73 1011.5
20260506030120 63 189 6.0 18.0 0.00 0.00 0.00 74 1011.4
20260506025900 63 212 6.0 18.0 0.00 0.00 0.00 73 1011.4
20260506025759 63 199 6.0 21.0 0.00 0.00 0.00 73 1011.4
20260506025700 63 242 6.0 21.0 0.00 0.00 0.00 73 1011.4
20260506025601 63 159 7.0 21.0 0.00 0.00 0.00 73 1011.4
20260506025459 63 185 7.0 21.0 0.00 0.00 0.00 73 1011.3
20260506025359 63 212 7.0 21.0 0.00 0.00 0.00 73 1011.3
20260506025300 63 165 7.0 21.0 0.00 0.00 0.00 73 1011.5
20260506025221 63 173 7.0 21.0 0.00 0.00 0.00 73 1011.5
20260506025206 63 219 7.0 21.0 0.00 0.00 0.00 73 1011.3
20260506025141 63 166 7.0 21.0 0.00 0.00 0.00 73 1011.5
20260506024959 63 173 7.0 21.0 0.00 0.00 0.00 73 1011.5
20260506024901 63 161 7.0 21.0 0.00 0.00 0.00 73 1011.5
20260506024759 63 148 7.0 20.0 0.00 0.00 0.00 73 1011.5
20260506024659 63 177 6.0 20.0 0.00 0.00 0.00 73 1011.7
20260506024559 63 213 6.0 20.0 0.00 0.00 0.00 72 1011.7
20260506024459 63 144 6.0 20.0 0.00 0.00 0.00 72 1011.8
20260506024356 63 169 6.0 20.0 0.00 0.00 0.00 72 1011.8
20260506024255 63 183 6.0 20.0 0.00 0.00 0.00 72 1011.8
20260506024154 63 121 6.0 20.0 0.00 0.00 0.00 72 1011.8
20260506024134 63 171 6.0 20.0 0.00 0.00 0.00 72 1011.7
20260506024120 63 128 6.0 20.0 0.00 0.00 0.00 72 1011.8
20260506023919 63 198 6.0 23.0 0.00 0.00 0.00 72 1011.7
20260506023908 63 197 6.0 20.0 0.00 0.00 0.00 72 1011.7
20260506023649 63 254 6.0 23.0 0.00 0.00 0.00 72 1011.5
20260506023548 63 178 6.0 23.0 0.00 0.00 0.00 72 1011.7
20260506023449 63 184 6.0 23.0 0.00 0.00 0.00 71 1011.7
20260506023420 63 182 6.0 23.0 0.00 0.00 0.00 71 1011.8
20260506023408 63 182 6.0 23.0 0.00 0.00 0.00 71 1011.9
20260506023145 63 186 6.0 23.0 0.00 0.00 0.00 71 1011.8
20260506023045 63 197 6.0 23.0 0.00 0.00 0.00 71 1011.5
20260506022959 63 244 6.0 17.0 0.00 0.00 0.00 71 1011.7
20260506022947 63 181 6.0 23.0 0.00 0.00 0.00 71 1011.5
20260506022941 63 188 6.0 17.0 0.00 0.00 0.00 70 1011.7
20260506022921 63 224 6.0 17.0 0.00 0.00 0.00 71 1011.8
20260506022613 63 167 6.0 20.0 0.00 0.00 0.00 70 1011.8
20260506022603 63 198 6.0 15.0 0.00 0.00 0.00 71 1011.8
20260506022343 63 185 6.0 20.0 0.00 0.00 0.00 70 1011.7
20260506022313 63 200 7.0 20.0 0.00 0.00 0.00 70 1011.8
20260506022301 63 186 7.0 20.0 0.00 0.00 0.00 71 1011.8
20260506022034 63 192 7.0 20.0 0.00 0.00 0.00 70 1011.7
20260506022011 63 212 7.0 22.0 0.00 0.00 0.00 70 1011.5
20260506022006 63 167 7.0 22.0 0.00 0.00 0.00 70 1011.7
20260506021952 63 186 7.0 22.0 0.00 0.00 0.00 70 1011.8
20260506021934 63 179 7.0 22.0 0.00 0.00 0.00 70 1011.7
20260506021649 63 192 7.0 22.0 0.00 0.00 0.00 70 1011.7
20260506021429 63 259 7.0 22.0 0.00 0.00 0.00 70 1011.7
20260506021359 63 227 7.0 22.0 0.00 0.00 0.00 70 1011.5
20260506021348 63 199 7.0 22.0 0.00 0.00 0.00 70 1011.5
20260506021125 63 206 7.0 22.0 0.00 0.00 0.00 70 1011.5
20260506021022 63 201 6.0 21.0 0.00 0.00 0.00 70 1011.4
20260506020922 63 290 6.0 14.0 0.00 0.00 0.00 70 1011.4
20260506020822 63 224 6.0 14.0 0.00 0.00 0.00 70 1011.4
20260506020723 63 213 6.0 14.0 0.00 0.00 0.00 70 1011.4
20260506020614 63 186 6.0 14.0 0.00 0.00 0.00 70 1011.4
20260506020511 63 182 6.0 15.0 0.00 0.00 0.00 70 1011.4
20260506020411 63 196 6.0 15.0 0.00 0.00 0.00 70 1011.5
20260506020312 63 220 6.0 15.0 0.00 0.00 0.00 70 1011.5
20260506020211 63 206 6.0 15.0 0.00 0.00 0.00 70 1011.4
20260506020107 63 183 6.0 17.0 0.00 0.00 0.00 69 1011.4
20260506020037 63 201 6.0 17.0 0.00 0.00 0.00 69 1011.5
20260506020028 63 148 6.0 17.0 0.00 0.00 0.00 69 1011.4
20260506015806 63 192 6.0 17.0 0.00 0.00 0.00 69 1011.7
20260506015706 63 166 6.0 17.0 0.00 0.00 0.00 69 1011.7
20260506015617 63 181 6.0 17.0 0.00 0.00 0.00 69 1011.7
20260506015612 63 185 6.0 17.0 0.00 0.00 0.00 69 1011.8
20260506015601 63 137 6.0 17.0 0.00 0.00 0.00 69 1011.7
20260506015539 63 188 6.0 17.0 0.00 0.00 0.00 69 1011.7
20260506015200 63 169 6.0 17.0 0.00 0.00 0.00 69 1011.9
20260506015046 63 170 6.0 17.0 0.00 0.00 0.00 69 1011.9
20260506014945 63 205 6.0 17.0 0.00 0.00 0.00 69 1011.9
20260506014847 63 161 5.0 17.0 0.00 0.00 0.00 69 1011.9
20260506014745 63 201 6.0 17.0 0.00 0.00 0.00 69 1012.0
20260506014718 63 176 6.0 20.0 0.00 0.00 0.00 69 1012.0
20260506014609 63 181 5.0 20.0 0.00 0.00 0.00 69 1012.1
20260506014559 63 196 6.0 20.0 0.00 0.00 0.00 69 1012.0
20260506014338 63 217 5.0 20.0 0.00 0.00 0.00 69 1012.0
20260506014311 63 201 5.0 20.0 0.00 0.00 0.00 69 1012.1
20260506014259 64 173 5.0 20.0 0.00 0.00 0.00 69 1012.1
20260506014104 64 194 5.0 20.0 0.00 0.00 0.00 68 1012.0
20260506014054 63 209 5.0 20.0 0.00 0.00 0.00 69 1012.0
20260506013831 64 208 6.0 20.0 0.00 0.00 0.00 68 1012.0
20260506013733 63 166 5.0 15.0 0.00 0.00 0.00 68 1012.0
20260506013632 64 183 5.0 15.0 0.00 0.00 0.00 68 1012.0
20260506013523 64 215 5.0 12.0 0.00 0.00 0.00 68 1012.0
20260506013421 64 200 5.0 12.0 0.00 0.00 0.00 68 1011.9
20260506013320 64 287 5.0 16.0 0.00 0.00 0.00 68 1011.9
20260506013254 64 201 6.0 16.0 0.00 0.00 0.00 68 1011.8
20260506013244 64 178 6.0 16.0 0.00 0.00 0.00 68 1011.8
20260506013055 64 192 6.0 19.0 0.00 0.00 0.00 68 1011.8
20260506013043 64 174 6.0 16.0 0.00 0.00 0.00 68 1011.8
20260506012816 64 103 6.0 19.0 0.00 0.00 0.00 68 1011.7
20260506012718 64 198 6.0 19.0 0.00 0.00 0.00 68 1011.8
20260506012616 64 250 6.0 19.0 0.00 0.00 0.00 68 1011.8
20260506012540 64 216 6.0 19.0 0.00 0.00 0.00 67 1011.5
20260506012534 64 190 6.0 12.0 0.00 0.00 0.00 67 1011.4
20260506012520 64 218 6.0 19.0 0.00 0.00 0.00 68 1011.7
20260506012457 64 190 7.0 19.0 0.00 0.00 0.00 67 1011.7
20260506012328 64 195 6.0 19.0 0.00 0.00 0.00 67 1011.7
20260506012308 64 169 6.0 19.0 0.00 0.00 0.00 67 1011.5
20260506012018 64 207 6.0 12.0 0.00 0.00 0.00 67 1011.5
20260506011757 64 239 6.0 12.0 0.00 0.00 0.00 67 1011.5
20260506011657 64 175 6.0 16.0 0.00 0.00 0.00 67 1011.5
20260506011555 64 200 6.0 23.0 0.00 0.00 0.00 67 1011.5
20260506011448 64 194 6.0 23.0 0.00 0.00 0.00 67 1011.7
20260506011348 64 184 7.0 23.0 0.00 0.00 0.00 67 1011.5
20260506011322 64 181 7.0 23.0 0.00 0.00 0.00 67 1011.5
20260506011310 64 189 7.0 23.0 0.00 0.00 0.00 67 1011.5
20260506011048 64 142 7.0 23.0 0.00 0.00 0.00 67 1011.7
20260506010944 64 180 7.0 23.0 0.00 0.00 0.00 67 1011.5
20260506010840 64 220 7.0 23.0 0.00 0.00 0.00 67 1011.5
20260506010746 64 201 7.0 23.0 0.00 0.00 0.00 67 1011.5
20260506010717 64 250 7.0 21.0 0.00 0.00 0.00 67 1011.5
20260506010706 64 178 7.0 23.0 0.00 0.00 0.00 67 1011.5
20260506010431 64 214 7.0 21.0 0.00 0.00 0.00 67 1011.5
20260506010331 64 221 7.0 22.0 0.00 0.00 0.00 67 1011.3
20260506010232 64 192 7.0 22.0 0.00 0.00 0.00 67 1011.4
20260506010137 64 192 7.0 22.0 0.00 0.00 0.00 67 1011.3
20260506010029 64 194 7.0 22.0 0.00 0.00 0.00 66 1011.4
20260506005957 64 177 7.0 22.0 0.00 0.00 0.00 66 1011.4
20260506005945 64 168 7.0 22.0 0.00 0.00 0.00 66 1011.4
20260506005723 64 196 7.0 22.0 0.00 0.00 0.00 66 1011.3
20260506005622 64 186 7.0 22.0 0.00 0.00 0.00 66 1011.3
20260506005522 64 173 7.0 22.0 0.00 0.00 0.00 66 1011.3
20260506005415 64 236 6.0 22.0 0.00 0.00 0.00 66 1011.3
20260506005315 64 183 6.0 20.0 0.00 0.00 0.00 66 1011.3
20260506005216 64 212 6.0 20.0 0.00 0.00 0.00 66 1011.3
20260506005116 64 184 6.0 20.0 0.00 0.00 0.00 66 1011.3
20260506005016 64 167 6.0 20.0 0.00 0.00 0.00 66 1011.2
20260506004902 64 162 6.0 20.0 0.00 0.00 0.00 66 1011.2
20260506004803 64 192 6.0 20.0 0.00 0.00 0.00 66 1011.1
20260506004704 64 192 6.0 20.0 0.00 0.00 0.00 66 1011.2
20260506004601 64 192 6.0 20.0 0.00 0.00 0.00 66 1011.2
20260506004534 64 185 6.0 20.0 0.00 0.00 0.00 66 1011.2
20260506004522 64 173 6.0 20.0 0.00 0.00 0.00 66 1011.3
20260506004255 64 132 6.0 20.0 0.00 0.00 0.00 66 1011.3
20260506004155 64 200 6.0 20.0 0.00 0.00 0.00 66 1011.3
20260506004056 64 198 6.0 20.0 0.00 0.00 0.00 66 1011.3
20260506003955 64 190 6.0 20.0 0.00 0.00 0.00 65 1011.2
20260506003925 64 185 6.0 19.0 0.00 0.00 0.00 65 1011.3
20260506003913 64 148 6.0 19.0 0.00 0.00 0.00 65 1011.3
20260506003650 64 180 7.0 19.0 0.00 0.00 0.00 65 1011.3
20260506003553 64 184 6.0 19.0 0.00 0.00 0.00 65 1011.3
20260506003450 64 240 6.0 19.0 0.00 0.00 0.00 65 1011.3
20260506003343 64 187 6.0 19.0 0.00 0.00 0.00 65 1011.3
20260506003241 64 159 6.0 19.0 0.00 0.00 0.00 65 1011.3
20260506003141 64 202 6.0 19.0 0.00 0.00 0.00 65 1011.4
20260506003057 64 196 5.0 17.0 0.00 0.00 0.00 65 1011.4
20260506002939 64 188 5.0 18.0 0.00 0.00 0.00 65 1011.3
20260506002833 64 190 5.0 18.0 0.00 0.00 0.00 65 1011.4
20260506002735 64 169 5.0 18.0 0.00 0.00 0.00 65 1011.3
20260506002634 64 157 5.0 18.0 0.00 0.00 0.00 65 1011.3
20260506002533 64 220 5.0 18.0 0.00 0.00 0.00 65 1011.2
20260506002458 64 174 5.0 18.0 0.00 0.00 0.00 65 1011.3
20260506002449 64 188 5.0 18.0 0.00 0.00 0.00 65 1011.3
20260506002227 64 195 5.0 18.0 0.00 0.00 0.00 65 1011.3
20260506002127 64 210 5.0 18.0 0.00 0.00 0.00 65 1011.3
20260506002026 64 250 5.0 18.0 0.00 0.00 0.00 64 1011.3
20260506001928 64 175 5.0 18.0 0.00 0.00 0.00 64 1011.3
20260506001852 64 164 5.0 17.0 0.00 0.00 0.00 64 1011.3
20260506001839 64 200 5.0 17.0 0.00 0.00 0.00 64 1011.3
20260506001619 64 184 5.0 17.0 0.00 0.00 0.00 64 1011.3
20260506001516 64 173 5.0 17.0 0.00 0.00 0.00 64 1011.3
20260506001415 64 203 5.0 15.0 0.00 0.00 0.00 64 1011.3
20260506001315 64 190 5.0 15.0 0.00 0.00 0.00 64 1011.3
20260506001215 64 202 5.0 15.0 0.00 0.00 0.00 64 1011.3
20260506001114 64 200 5.0 15.0 0.00 0.00 0.00 64 1011.3
20260506001016 64 170 4.0 15.0 0.00 0.00 0.00 64 1011.4
20260506000915 64 207 4.0 15.0 0.00 0.00 0.00 64 1011.3
20260506000815 64 178 4.0 15.0 0.00 0.00 0.00 64 1011.4
20260506000806 64 194 5.0 13.0 0.00 0.00 0.00 64 1011.4
20260506000748 64 222 4.0 13.0 0.00 0.00 0.00 64 1011.4
20260506000620 64 197 4.0 13.0 0.00 0.00 0.00 64 1011.3
20260506000559 64 211 4.0 11.0 0.00 0.00 0.00 64 1011.3
20260506000438 64 175 4.0 12.0 0.00 0.00 0.00 65 1011.4
20260506000215 64 194 5.0 13.0 0.00 0.00 0.00 64 1011.4
20260506000112 64 156 5.0 13.0 0.00 0.00 0.00 64 1011.4
20260506000011 64 173 5.0 13.0 0.00 0.00 0.00 64 1011.4
20260505235911 64 196 5.0 16.0 0.00 0.00 0.00 64 1011.4
20260505235812 64 190 5.0 16.0 0.00 0.00 0.00 64 1011.4
20260505235710 64 155 5.0 16.0 0.00 0.00 0.00 64 1011.4
20260505235613 64 217 5.0 16.0 0.00 0.00 0.00 64 1011.4
20260505235545 64 201 5.0 16.0 0.00 0.00 0.00 64 1011.5
20260505235535 64 211 5.0 16.0 0.00 0.00 0.00 64 1011.4
20260505235312 64 188 5.0 16.0 0.00 0.00 0.00 64 1011.5
20260505235211 64 114 5.0 16.0 0.00 0.00 0.00 64 1011.4
20260505235110 64 128 5.0 16.0 0.00 0.00 0.00 65 1011.5
20260505235011 64 202 5.0 16.0 0.00 0.00 0.00 65 1011.4
20260505234913 64 218 5.0 15.0 0.00 0.00 0.00 65 1011.4
20260505234812 64 178 5.0 14.0 0.00 0.00 0.00 64 1011.5
20260505234711 64 186 5.0 14.0 0.00 0.00 0.00 64 1011.4
20260505234611 64 199 5.0 14.0 0.00 0.00 0.00 64 1011.4
20260505234511 64 168 5.0 19.0 0.00 0.00 0.00 64 1011.4
20260505234410 64 196 5.0 19.0 0.00 0.00 0.00 64 1011.4
20260505234311 64 199 5.0 19.0 0.00 0.00 0.00 64 1011.5
20260505234211 64 196 5.0 19.0 0.00 0.00 0.00 64 1011.5
20260505234145 64 162 5.0 19.0 0.00 0.00 0.00 64 1011.4
20260505234133 64 98 5.0 19.0 0.00 0.00 0.00 64 1011.7
20260505233909 64 180 6.0 19.0 0.00 0.00 0.00 64 1011.5
20260505233810 64 199 6.0 19.0 0.00 0.00 0.00 64 1011.5
20260505233742 64 164 6.0 19.0 0.00 0.00 0.00 64 1011.5
20260505233730 64 238 6.0 19.0 0.00 0.00 0.00 64 1011.7
20260505233509 64 147 6.0 18.0 0.00 0.00 0.00 64 1011.7
20260505233444 64 217 6.0 18.0 0.00 0.00 0.00 64 1011.7
20260505233434 64 150 6.0 18.0 0.00 0.00 0.00 64 1011.7
20260505233210 64 175 6.0 18.0 0.00 0.00 0.00 64 1011.7
20260505233111 64 200 6.0 18.0 0.00 0.00 0.00 64 1011.5
20260505233013 64 192 6.0 18.0 0.00 0.00 0.00 64 1011.5
20260505232910 64 195 6.0 18.0 0.00 0.00 0.00 64 1011.5
20260505232810 64 175 6.0 18.0 0.00 0.00 0.00 64 1011.5
20260505232710 64 186 6.0 18.0 0.00 0.00 0.00 64 1011.5
20260505232612 64 147 6.0 18.0 0.00 0.00 0.00 64 1011.7
20260505232601 64 180 5.0 15.0 0.00 0.00 0.00 64 1011.7
20260505232555 64 216 5.0 15.0 0.00 0.00 0.00 64 1011.8
20260505232535 64 205 6.0 18.0 0.00 0.00 0.00 64 1011.5
20260505232516 64 211 5.0 15.0 0.00 0.00 0.00 64 1011.7
20260505232228 64 192 5.0 15.0 0.00 0.00 0.00 64 1011.7
20260505232007 64 166 5.0 15.0 0.00 0.00 0.00 64 1011.8
20260505231906 64 175 5.0 15.0 0.00 0.00 0.00 64 1011.8
20260505231859 64 174 5.0 15.0 0.00 0.00 0.00 64 1011.8
20260505231839 64 205 5.0 15.0 0.00 0.00 0.00 64 1011.8
20260505231639 64 202 5.0 19.0 0.00 0.00 0.00 63 1011.9
20260505231628 64 175 5.0 19.0 0.00 0.00 0.00 63 1011.8
20260505231406 64 200 6.0 19.0 0.00 0.00 0.00 63 1011.9
20260505231305 64 237 6.0 19.0 0.00 0.00 0.00 63 1011.8
20260505231205 64 189 5.0 19.0 0.00 0.00 0.00 63 1011.9
20260505231104 64 190 5.0 19.0 0.00 0.00 0.00 64 1011.8
20260505231005 64 155 5.0 19.0 0.00 0.00 0.00 64 1011.8
20260505230934 64 233 5.0 19.0 0.00 0.00 0.00 63 1011.9
20260505230924 64 153 5.0 19.0 0.00 0.00 0.00 64 1011.8
20260505230703 64 217 6.0 19.0 0.00 0.00 0.00 64 1011.9
20260505230604 64 186 6.0 19.0 0.00 0.00 0.00 63 1011.9
20260505230504 64 197 6.0 16.0 0.00 0.00 0.00 63 1011.8
20260505230431 64 172 6.0 16.0 0.00 0.00 0.00 63 1011.5
20260505230422 64 186 6.0 16.0 0.00 0.00 0.00 63 1011.7
20260505230158 64 222 6.0 16.0 0.00 0.00 0.00 63 1011.5
20260505230100 64 196 6.0 16.0 0.00 0.00 0.00 63 1011.7
20260505225957 64 180 5.0 16.0 0.00 0.00 0.00 63 1011.7
20260505225858 64 182 5.0 16.0 0.00 0.00 0.00 63 1011.8
20260505225752 64 175 5.0 16.0 0.00 0.00 0.00 63 1011.7
20260505225651 64 188 5.0 15.0 0.00 0.00 0.00 63 1011.5
20260505225552 64 143 4.0 14.0 0.00 0.00 0.00 63 1011.8
20260505225452 64 187 4.0 13.0 0.00 0.00 0.00 63 1011.8
20260505225351 64 195 4.0 13.0 0.00 0.00 0.00 64 1011.9
20260505225244 64 219 4.0 12.0 0.00 0.00 0.00 63 1012.0
20260505225145 64 189 4.0 14.0 0.00 0.00 0.00 63 1012.0
20260505225045 65 154 4.0 14.0 0.00 0.00 0.00 64 1012.1
20260505224944 65 150 4.0 14.0 0.00 0.00 0.00 63 1012.0
20260505224845 65 185 4.0 14.0 0.00 0.00 0.00 64 1012.1
20260505224808 65 117 4.0 14.0 0.00 0.00 0.00 63 1012.3
20260505224755 65 179 4.0 14.0 0.00 0.00 0.00 63 1012.3
20260505224534 65 202 4.0 14.0 0.00 0.00 0.00 63 1012.4
20260505224434 65 237 4.0 14.0 0.00 0.00 0.00 63 1012.6
20260505224332 65 212 4.0 14.0 0.00 0.00 0.00 64 1012.6
20260505224232 65 202 4.0 14.0 0.00 0.00 0.00 64 1012.7
20260505224134 65 155 4.0 14.0 0.00 0.00 0.00 64 1012.7
20260505224033 65 189 5.0 19.0 0.00 0.00 0.00 63 1012.8
20260505224009 65 205 5.0 19.0 0.00 0.00 0.00 63 1013.0
20260505223958 65 123 5.0 19.0 0.00 0.00 0.00 64 1012.9
20260505223734 65 186 4.0 19.0 0.00 0.00 0.00 63 1013.1
20260505223632 65 176 4.0 19.0 0.00 0.00 0.00 63 1013.4
20260505223534 65 223 4.0 19.0 0.00 0.00 0.00 64 1013.4
20260505223434 65 213 4.0 19.0 0.00 0.00 0.00 64 1013.4
20260505223334 65 178 5.0 19.0 0.00 0.00 0.00 63 1013.5
20260505223233 65 208 5.0 19.0 0.00 0.00 0.00 63 1013.5
20260505223133 65 207 5.0 19.0 0.00 0.00 0.00 64 1013.6
20260505223028 65 210 4.0 15.0 0.00 0.00 0.00 64 1013.5
20260505223005 65 223 5.0 18.0 0.00 0.00 0.00 63 1013.5
20260505223000 65 190 5.0 18.0 0.00 0.00 0.00 62 1013.5
20260505222956 65 163 5.0 18.0 0.00 0.00 0.00 63 1013.5
20260505222942 65 209 5.0 15.0 0.00 0.00 0.00 63 1013.6
20260505222925 65 150 5.0 18.0 0.00 0.00 0.00 63 1013.6
20260505222421 65 244 5.0 18.0 0.00 0.00 0.00 63 1013.5
20260505222320 65 200 5.0 18.0 0.00 0.00 0.00 62 1013.1
20260505222222 65 113 4.0 18.0 0.00 0.00 0.00 63 1013.1
20260505222122 65 218 4.0 18.0 0.00 0.00 0.00 63 1013.1
20260505222047 65 219 4.0 18.0 0.00 0.00 0.00 62 1012.9
20260505222035 65 190 4.0 18.0 0.00 0.00 0.00 62 1013.0
20260505221816 65 187 4.0 15.0 0.00 0.00 0.00 63 1013.0
20260505221714 66 121 4.0 14.0 0.00 0.00 0.00 63 1013.0
20260505221612 66 232 4.0 14.0 0.00 0.00 0.00 62 1012.9
20260505221509 66 202 4.0 14.0 0.00 0.00 0.00 62 1012.8
20260505221404 66 182 4.0 14.0 0.00 0.00 0.00 62 1012.7
20260505221305 66 233 4.0 14.0 0.00 0.00 0.00 61 1012.6
20260505221206 66 209 5.0 19.0 0.00 0.00 0.00 61 1012.4
20260505221106 66 169 5.0 19.0 0.00 0.00 0.00 62 1012.4
20260505221005 66 190 5.0 19.0 0.00 0.00 0.00 62 1012.3
20260505220905 66 67 5.0 19.0 0.00 0.00 0.00 61 1012.4
20260505220806 66 157 5.0 19.0 0.00 0.00 0.00 61 1012.3
20260505220704 66 171 5.0 19.0 0.00 0.00 0.00 61 1012.4
20260505220639 66 170 5.0 19.0 0.00 0.00 0.00 60 1012.4
20260505220629 66 241 5.0 19.0 0.00 0.00 0.00 61 1012.5
20260505220436 66 202 5.0 19.0 0.00 0.00 0.00 61 1012.3
20260505220425 66 181 5.0 19.0 0.00 0.00 0.00 61 1012.3
20260505220204 66 203 4.0 15.0 0.00 0.00 0.00 60 1012.3
20260505220105 66 190 5.0 15.0 0.00 0.00 0.00 60 1012.2
20260505220004 66 147 5.0 15.0 0.00 0.00 0.00 59 1012.2
20260505215904 66 76 5.0 15.0 0.00 0.00 0.00 59 1012.2
20260505215759 66 181 5.0 15.0 0.00 0.00 0.00 59 1012.0
20260505215657 66 198 5.0 15.0 0.00 0.00 0.00 58 1012.0
20260505215558 66 219 5.0 15.0 0.00 0.00 0.00 59 1011.9
20260505215457 66 65 5.0 15.0 0.00 0.00 0.00 59 1011.8
20260505215359 67 165 4.0 15.0 0.00 0.00 0.00 58 1011.8
20260505215253 67 144 5.0 15.0 0.00 0.00 0.00 58 1011.7
20260505215154 67 185 5.0 15.0 0.00 0.00 0.00 58 1011.7
20260505215052 67 177 4.0 15.0 0.00 0.00 0.00 58 1011.7
20260505214953 67 198 4.0 14.0 0.00 0.00 0.00 58 1011.8
20260505214853 67 227 4.0 14.0 0.00 0.00 0.00 57 1011.5
20260505214754 67 151 4.0 14.0 0.00 0.00 0.00 57 1011.8
20260505214724 67 61 5.0 18.0 0.00 0.00 0.00 57 1011.8
20260505214715 67 156 5.0 14.0 0.00 0.00 0.00 57 1011.7
20260505214452 67 241 5.0 19.0 0.00 0.00 0.00 57 1011.8
20260505214403 67 183 5.0 19.0 0.00 0.00 0.00 57 1011.8
20260505214352 67 71 5.0 19.0 0.00 0.00 0.00 58 1011.7
20260505214346 67 74 5.0 19.0 0.00 0.00 0.00 57 1011.7
20260505214326 67 162 5.0 19.0 0.00 0.00 0.00 57 1011.8
20260505213947 68 203 5.0 19.0 0.00 0.00 0.00 56 1011.8
20260505213849 68 98 5.0 19.0 0.00 0.00 0.00 55 1011.9
20260505213746 68 198 4.0 19.0 0.00 0.00 0.00 56 1011.9
20260505213649 68 211 4.0 19.0 0.00 0.00 0.00 56 1012.0
20260505213542 68 198 4.0 17.0 0.00 0.00 0.00 56 1012.0
20260505213441 68 195 4.0 12.0 0.00 0.00 0.00 58 1012.0
20260505213339 68 144 4.0 12.0 0.00 0.00 0.00 58 1012.0
20260505213240 68 237 4.0 19.0 0.00 0.00 0.00 58 1012.0
20260505213205 68 188 5.0 19.0 0.00 0.00 0.00 57 1012.1
20260505213156 68 169 4.0 19.0 0.00 0.00 0.00 58 1012.0
20260505212934 68 222 5.0 19.0 0.00 0.00 0.00 57 1012.2
20260505212905 68 260 5.0 20.0 0.00 0.00 0.00 56 1012.1
20260505212854 68 227 5.0 19.0 0.00 0.00 0.00 55 1012.1
20260505212645 68 194 5.0 20.0 0.00 0.00 0.00 55 1012.2
20260505212634 68 194 5.0 20.0 0.00 0.00 0.00 55 1012.1
20260505212609 68 184 5.0 20.0 0.00 0.00 0.00 54 1012.2
20260505212447 68 210 5.0 20.0 0.00 0.00 0.00 55 1012.1
20260505212227 68 193 5.0 20.0 0.00 0.00 0.00 55 1012.1
20260505212125 68 239 5.0 21.0 0.00 0.00 0.00 55 1012.1
20260505212021 68 169 5.0 21.0 0.00 0.00 0.00 56 1012.1
20260505211923 68 182 5.0 21.0 0.00 0.00 0.00 56 1012.1
20260505211821 68 198 5.0 23.0 0.00 0.00 0.00 57 1012.1
20260505211722 68 193 5.0 23.0 0.00 0.00 0.00 57 1012.2
20260505211621 68 214 6.0 23.0 0.00 0.00 0.00 55 1012.1
20260505211544 68 188 6.0 23.0 0.00 0.00 0.00 56 1012.1
20260505211531 68 202 6.0 23.0 0.00 0.00 0.00 55 1012.1
20260505211310 68 228 6.0 23.0 0.00 0.00 0.00 56 1012.1
20260505211209 68 246 6.0 23.0 0.00 0.00 0.00 56 1012.0
20260505211110 69 193 6.0 23.0 0.00 0.00 0.00 56 1012.1
20260505211006 69 193 6.0 23.0 0.00 0.00 0.00 57 1012.0
20260505210903 69 304 6.0 21.0 0.00 0.00 0.00 56 1011.9
20260505210803 69 142 6.0 21.0 0.00 0.00 0.00 56 1011.9
20260505210702 69 221 6.0 21.0 0.00 0.00 0.00 56 1011.8
20260505210604 69 174 6.0 24.0 0.00 0.00 0.00 56 1011.9
20260505210501 69 202 6.0 24.0 0.00 0.00 0.00 56 1011.9
20260505210356 69 219 6.0 24.0 0.00 0.00 0.00 56 1011.9
20260505210258 69 218 6.0 24.0 0.00 0.00 0.00 56 1012.0
20260505210156 69 178 7.0 24.0 0.00 0.00 0.00 56 1012.0
20260505210059 69 142 7.0 24.0 0.00 0.00 0.00 56 1012.1
20260505205946 68 212 6.0 24.0 0.00 0.00 0.00 57 1012.1
20260505205844 68 201 6.0 24.0 0.00 0.00 0.00 56 1012.1
20260505205744 68 159 6.0 24.0 0.00 0.00 0.00 55 1012.1
20260505205643 68 198 6.0 24.0 0.00 0.00 0.00 55 1012.2
20260505205544 68 163 6.0 19.0 0.00 0.00 0.00 56 1012.1
20260505205438 69 156 5.0 19.0 0.00 0.00 0.00 56 1012.0
20260505205337 69 192 5.0 19.0 0.00 0.00 0.00 56 1012.0
20260505205237 69 188 5.0 19.0 0.00 0.00 0.00 56 1012.0
20260505205138 69 171 5.0 19.0 0.00 0.00 0.00 55 1012.1
20260505205038 69 165 5.0 19.0 0.00 0.00 0.00 54 1012.0
20260505204933 69 0 4.0 19.0 0.00 0.00 0.00 54 1012.1
20260505204830 69 107 4.0 19.0 0.00 0.00 0.00 56 1011.9
20260505204728 69 248 4.0 19.0 0.00 0.00 0.00 56 1012.0
20260505204629 70 186 4.0 19.0 0.00 0.00 0.00 58 1012.0
20260505204529 70 178 4.0 13.0 0.00 0.00 0.00 58 1012.1
20260505204420 70 184 3.0 13.0 0.00 0.00 0.00 57 1012.0
20260505204319 70 211 3.0 13.0 0.00 0.00 0.00 58 1012.1
20260505204220 70 162 3.0 13.0 0.00 0.00 0.00 59 1012.1
20260505204121 70 107 3.0 13.0 0.00 0.00 0.00 58 1012.2
20260505204047 69 153 4.0 13.0 0.00 0.00 0.00 58 1012.2
20260505204037 70 161 3.0 13.0 0.00 0.00 0.00 59 1012.2
20260505203813 69 117 4.0 14.0 0.00 0.00 0.00 57 1012.2
20260505203713 69 216 4.0 14.0 0.00 0.00 0.00 58 1012.6
20260505203649 69 170 4.0 16.0 0.00 0.00 0.00 57 1012.1
20260505203638 69 163 4.0 14.0 0.00 0.00 0.00 58 1012.1
20260505203410 69 176 4.0 16.0 0.00 0.00 0.00 57 1012.0
20260505203306 69 240 4.0 16.0 0.00 0.00 0.00 59 1012.0
20260505203207 69 190 4.0 16.0 0.00 0.00 0.00 58 1012.0
20260505203106 69 211 4.0 16.0 0.00 0.00 0.00 57 1012.0
20260505203006 68 235 4.0 16.0 0.00 0.00 0.00 58 1012.0
20260505202852 68 140 4.0 16.0 0.00 0.00 0.00 58 1012.1
20260505202753 68 198 4.0 16.0 0.00 0.00 0.00 59 1012.1
20260505202724 68 200 4.0 16.0 0.00 0.00 0.00 59 1012.2
20260505202713 68 202 4.0 16.0 0.00 0.00 0.00 59 1012.1
20260505202452 68 119 4.0 16.0 0.00 0.00 0.00 59 1012.3
20260505202352 68 101 4.0 16.0 0.00 0.00 0.00 59 1012.2
20260505202253 68 151 4.0 12.0 0.00 0.00 0.00 59 1012.4
20260505202152 69 148 4.0 13.0 0.00 0.00 0.00 59 1012.4
20260505202130 69 204 4.0 13.0 0.00 0.00 0.00 59 1012.4
20260505202116 69 167 4.0 13.0 0.00 0.00 0.00 60 1012.4
20260505201852 69 177 4.0 13.0 0.00 0.00 0.00 60 1012.4
20260505201753 69 187 4.0 13.0 0.00 0.00 0.00 58 1012.4
20260505201652 69 141 4.0 13.0 0.00 0.00 0.00 58 1012.5
20260505201554 69 223 4.0 13.0 0.00 0.00 0.00 58 1012.4
20260505201452 69 190 4.0 18.0 0.00 0.00 0.00 57 1012.5
20260505201352 69 194 5.0 18.0 0.00 0.00 0.00 59 1012.5
20260505201253 69 175 5.0 18.0 0.00 0.00 0.00 58 1012.6
20260505201152 69 167 5.0 18.0 0.00 0.00 0.00 60 1012.6
20260505201052 68 234 5.0 18.0 0.00 0.00 0.00 61 1012.5
20260505200953 68 263 5.0 18.0 0.00 0.00 0.00 59 1012.4
20260505200854 68 216 5.0 18.0 0.00 0.00 0.00 62 1012.6
20260505200822 67 196 5.0 17.0 0.00 0.00 0.00 61 1012.8
20260505200811 68 199 5.0 18.0 0.00 0.00 0.00 60 1012.5
20260505200747 68 221 5.0 18.0 0.00 0.00 0.00 59 1012.5
20260505200633 67 189 5.0 17.0 0.00 0.00 0.00 61 1012.7
20260505200627 67 189 5.0 17.0 0.00 0.00 0.00 62 1012.6
20260505200622 67 94 5.0 17.0 0.00 0.00 0.00 63 1012.6
20260505200608 67 116 5.0 18.0 0.00 0.00 0.00 59 1012.5
20260505200551 67 207 5.0 15.0 0.00 0.00 0.00 60 1012.7
20260505200132 67 171 5.0 17.0 0.00 0.00 0.00 63 1012.7
20260505200008 67 179 5.0 17.0 0.00 0.00 0.00 62 1012.7
20260505195750 67 179 4.0 17.0 0.00 0.00 0.00 61 1012.8
20260505195650 67 166 4.0 17.0 0.00 0.00 0.00 61 1012.8
20260505195545 67 223 4.0 17.0 0.00 0.00 0.00 62 1012.8
20260505195445 67 217 4.0 17.0 0.00 0.00 0.00 62 1012.9
20260505195345 67 147 4.0 12.0 0.00 0.00 0.00 62 1012.9
20260505195317 67 121 4.0 12.0 0.00 0.00 0.00 65 1012.9
20260505195307 67 223 4.0 12.0 0.00 0.00 0.00 64 1012.9
20260505195118 67 261 4.0 12.0 0.00 0.00 0.00 64 1012.9
20260505195106 67 227 4.0 12.0 0.00 0.00 0.00 64 1012.9
20260505194844 67 198 4.0 12.0 0.00 0.00 0.00 66 1013.0
20260505194745 67 197 4.0 12.0 0.00 0.00 0.00 65 1013.0
20260505194646 67 197 4.0 12.0 0.00 0.00 0.00 63 1012.9
20260505194546 66 190 3.0 10.0 0.00 0.00 0.00 63 1013.0
20260505194444 66 183 3.0 10.0 0.00 0.00 0.00 63 1013.0
20260505194346 66 174 3.0 10.0 0.00 0.00 0.00 64 1013.1
20260505194247 66 192 3.0 10.0 0.00 0.00 0.00 64 1013.2
20260505194222 66 242 3.0 9.0 0.00 0.00 0.00 65 1013.1
20260505194208 66 216 3.0 9.0 0.00 0.00 0.00 65 1013.1
20260505194004 66 218 3.0 8.0 0.00 0.00 0.00 64 1013.2
20260505193959 66 238 3.0 8.0 0.00 0.00 0.00 66 1013.4
20260505193948 66 190 3.0 9.0 0.00 0.00 0.00 65 1013.2
20260505193926 66 195 3.0 8.0 0.00 0.00 0.00 64 1013.2
20260505193621 66 208 3.0 9.0 0.00 0.00 0.00 65 1013.4
20260505193609 66 153 3.0 8.0 0.00 0.00 0.00 65 1013.2
20260505193345 66 186 3.0 9.0 0.00 0.00 0.00 66 1013.4
20260505193246 66 135 3.0 13.0 0.00 0.00 0.00 65 1013.4
20260505193145 66 194 4.0 15.0 0.00 0.00 0.00 65 1013.4
20260505193049 66 157 4.0 15.0 0.00 0.00 0.00 63 1013.4
20260505192941 66 162 4.0 15.0 0.00 0.00 0.00 63 1013.5
20260505192908 66 218 4.0 15.0 0.00 0.00 0.00 61 1013.5
20260505192900 66 165 4.0 15.0 0.00 0.00 0.00 62 1013.6
20260505192719 65 200 4.0 13.0 0.00 0.00 0.00 63 1013.5
20260505192711 65 192 4.0 15.0 0.00 0.00 0.00 63 1013.5
20260505192706 65 215 4.0 13.0 0.00 0.00 0.00 63 1013.6
20260505192657 66 190 4.0 15.0 0.00 0.00 0.00 61 1013.5
20260505192636 66 173 4.0 15.0 0.00 0.00 0.00 62 1013.6
20260505192510 65 209 4.0 15.0 0.00 0.00 0.00 61 1013.5
20260505192453 65 150 4.0 15.0 0.00 0.00 0.00 62 1013.5
20260505192007 65 211 4.0 13.0 0.00 0.00 0.00 64 1013.1
20260505191957 65 215 4.0 13.0 0.00 0.00 0.00 62 1013.4
20260505191735 65 161 4.0 13.0 0.00 0.00 0.00 63 1013.1
20260505191635 64 221 4.0 15.0 0.00 0.00 0.00 65 1012.9
20260505191534 64 181 4.0 15.0 0.00 0.00 0.00 64 1012.9
20260505191434 64 107 4.0 15.0 0.00 0.00 0.00 64 1012.8
20260505191405 64 177 4.0 15.0 0.00 0.00 0.00 64 1012.9
20260505191234 64 171 4.0 15.0 0.00 0.00 0.00 64 1012.9
20260505191204 64 183 4.0 15.0 0.00 0.00 0.00 64 1012.8
20260505191154 64 180 4.0 15.0 0.00 0.00 0.00 64 1012.8
20260505190930 64 169 4.0 15.0 0.00 0.00 0.00 66 1012.7
20260505190826 64 184 4.0 15.0 0.00 0.00 0.00 67 1012.9
20260505190727 64 192 4.0 15.0 0.00 0.00 0.00 67 1013.0
20260505190627 64 250 4.0 14.0 0.00 0.00 0.00 67 1013.0
20260505190524 64 240 4.0 13.0 0.00 0.00 0.00 67 1013.1
20260505190429 64 201 4.0 19.0 0.00 0.00 0.00 67 1013.2
20260505190326 64 184 4.0 19.0 0.00 0.00 0.00 68 1013.2
20260505190224 64 205 4.0 19.0 0.00 0.00 0.00 67 1013.4
20260505190126 64 172 4.0 19.0 0.00 0.00 0.00 67 1013.4
20260505190050 64 198 4.0 19.0 0.00 0.00 0.00 67 1013.5
20260505185825 64 142 4.0 19.0 0.00 0.00 0.00 67 1013.5
20260505185724 64 244 4.0 19.0 0.00 0.00 0.00 67 1013.6
20260505185625 64 142 4.0 19.0 0.00 0.00 0.00 68 1013.5
20260505185524 64 190 4.0 19.0 0.00 0.00 0.00 67 1013.6
20260505185426 64 153 5.0 16.0 0.00 0.00 0.00 67 1013.7
20260505185324 64 188 5.0 20.0 0.00 0.00 0.00 67 1013.7
20260505185225 64 137 5.0 20.0 0.00 0.00 0.00 67 1013.9
20260505185124 64 163 5.0 20.0 0.00 0.00 0.00 67 1013.9
20260505185027 64 223 5.0 20.0 0.00 0.00 0.00 68 1013.8
20260505184922 64 244 5.0 20.0 0.00 0.00 0.00 68 1013.9
20260505184825 64 179 5.0 20.0 0.00 0.00 0.00 68 1013.9
20260505184818 64 215 5.0 20.0 0.00 0.00 0.00 67 1014.1
20260505184813 64 180 5.0 20.0 0.00 0.00 0.00 68 1014.1
20260505184807 64 178 4.0 18.0 0.00 0.00 0.00 68 1014.2
20260505184748 64 182 5.0 20.0 0.00 0.00 0.00 68 1013.9
20260505184727 64 192 5.0 20.0 0.00 0.00 0.00 67 1014.1
20260505184220 64 115 5.0 18.0 0.00 0.00 0.00 69 1014.3
20260505184115 64 188 4.0 18.0 0.00 0.00 0.00 71 1014.3
20260505184014 64 148 4.0 18.0 0.00 0.00 0.00 70 1014.2
20260505183915 64 162 4.0 13.0 0.00 0.00 0.00 70 1014.2
20260505183815 64 201 4.0 13.0 0.00 0.00 0.00 70 1014.2
20260505183714 64 209 4.0 13.0 0.00 0.00 0.00 70 1014.3
20260505183647 64 234 4.0 13.0 0.00 0.00 0.00 69 1014.3
20260505183634 64 194 3.0 13.0 0.00 0.00 0.00 69 1014.2
20260505183410 64 200 4.0 13.0 0.00 0.00 0.00 70 1014.2
20260505183312 64 175 4.0 13.0 0.00 0.00 0.00 70 1014.3
20260505183209 64 167 3.0 13.0 0.00 0.00 0.00 68 1014.2
20260505183110 64 206 4.0 13.0 0.00 0.00 0.00 70 1014.2
20260505183012 64 166 3.0 13.0 0.00 0.00 0.00 71 1014.2
20260505182943 64 140 3.0 13.0 0.00 0.00 0.00 68 1014.3
20260505182932 64 189 3.0 13.0 0.00 0.00 0.00 70 1014.2
20260505182717 64 196 3.0 13.0 0.00 0.00 0.00 70 1014.3
20260505182643 64 216 3.0 13.0 0.00 0.00 0.00 71 1014.3
20260505182633 64 195 4.0 13.0 0.00 0.00 0.00 70 1014.3
20260505182407 64 184 3.0 11.0 0.00 0.00 0.00 70 1014.2
20260505182306 64 211 3.0 10.0 0.00 0.00 0.00 71 1014.1
20260505182203 64 252 3.0 9.0 0.00 0.00 0.00 71 1014.1
20260505182102 64 237 3.0 9.0 0.00 0.00 0.00 71 1014.2
20260505182003 63 209 3.0 9.0 0.00 0.00 0.00 71 1014.2
20260505181940 63 216 4.0 11.0 0.00 0.00 0.00 71 1014.1
20260505181934 63 211 4.0 12.0 0.00 0.00 0.00 71 1014.1
20260505181930 63 180 4.0 12.0 0.00 0.00 0.00 70 1014.2
20260505181919 63 190 3.0 9.0 0.00 0.00 0.00 71 1014.2
20260505181736 63 136 4.0 11.0 0.00 0.00 0.00 71 1014.1
20260505181353 63 202 4.0 12.0 0.00 0.00 0.00 70 1014.2
20260505181250 63 205 4.0 12.0 0.00 0.00 0.00 70 1014.2
20260505181149 63 249 4.0 12.0 0.00 0.00 0.00 71 1014.2
20260505181120 63 202 4.0 12.0 0.00 0.00 0.00 71 1014.2
20260505181109 63 219 4.0 12.0 0.00 0.00 0.00 71 1014.2
20260505180848 63 220 3.0 12.0 0.00 0.00 0.00 71 1014.3
20260505180749 63 237 3.0 12.0 0.00 0.00 0.00 71 1014.4
20260505180647 63 173 3.0 12.0 0.00 0.00 0.00 71 1014.4
20260505180548 63 205 3.0 11.0 0.00 0.00 0.00 71 1014.5
20260505180540 63 175 3.0 13.0 0.00 0.00 0.00 69 1014.7
20260505180534 63 172 3.0 13.0 0.00 0.00 0.00 70 1014.8
20260505180528 63 188 4.0 13.0 0.00 0.00 0.00 70 1014.6
20260505180514 63 175 4.0 11.0 0.00 0.00 0.00 70 1014.5
20260505180328 63 203 4.0 13.0 0.00 0.00 0.00 70 1014.6
20260505180209 63 205 3.0 13.0 0.00 0.00 0.00 70 1014.8
20260505180158 63 101 3.0 13.0 0.00 0.00 0.00 70 1014.7
20260505180134 63 189 3.0 13.0 0.00 0.00 0.00 69 1014.7
20260505175954 63 210 3.0 13.0 0.00 0.00 0.00 69 1014.8
20260505175823 63 213 3.0 13.0 0.00 0.00 0.00 71 1014.8
20260505175441 63 182 3.0 13.0 0.00 0.00 0.00 71 1014.8
20260505175339 63 143 3.0 9.0 0.00 0.00 0.00 72 1014.8
20260505175307 63 200 3.0 9.0 0.00 0.00 0.00 72 1015.0
20260505175257 63 107 2.0 9.0 0.00 0.00 0.00 73 1014.8
20260505175034 63 199 3.0 9.0 0.00 0.00 0.00 72 1015.1
20260505174934 63 198 3.0 9.0 0.00 0.00 0.00 73 1015.1
20260505174834 63 184 3.0 9.0 0.00 0.00 0.00 73 1015.1
20260505174759 63 166 3.0 9.0 0.00 0.00 0.00 72 1015.0
20260505174750 63 174 3.0 9.0 0.00 0.00 0.00 73 1015.0
20260505174534 63 187 3.0 9.0 0.00 0.00 0.00 73 1015.0
20260505174426 63 212 2.0 9.0 0.00 0.00 0.00 73 1015.0
20260505174326 63 193 3.0 9.0 0.00 0.00 0.00 73 1015.0
20260505174226 63 192 3.0 10.0 0.00 0.00 0.00 72 1015.0
20260505174120 63 211 3.0 10.0 0.00 0.00 0.00 72 1015.1
20260505174018 63 209 3.0 10.0 0.00 0.00 0.00 73 1015.1
20260505173918 63 196 3.0 10.0 0.00 0.00 0.00 73 1015.2
20260505173850 63 123 3.0 12.0 0.00 0.00 0.00 73 1015.2
20260505173839 63 192 3.0 10.0 0.00 0.00 0.00 73 1015.2
20260505173614 63 184 3.0 12.0 0.00 0.00 0.00 72 1015.3
20260505173515 63 163 4.0 12.0 0.00 0.00 0.00 72 1015.3
20260505173413 63 175 4.0 12.0 0.00 0.00 0.00 72 1015.3
20260505173342 63 221 4.0 12.0 0.00 0.00 0.00 71 1015.4
20260505173332 63 186 4.0 12.0 0.00 0.00 0.00 71 1015.3
20260505173140 63 195 4.0 12.0 0.00 0.00 0.00 70 1015.3
20260505173129 63 211 4.0 12.0 0.00 0.00 0.00 70 1015.3
20260505172906 63 190 4.0 12.0 0.00 0.00 0.00 71 1015.3
20260505172807 63 173 3.0 16.0 0.00 0.00 0.00 71 1015.3
20260505172706 63 206 4.0 16.0 0.00 0.00 0.00 71 1015.4
20260505172551 63 176 4.0 16.0 0.00 0.00 0.00 70 1015.3
20260505172507 64 246 4.0 16.0 0.00 0.00 0.00 72 1015.4
20260505172503 63 93 4.0 16.0 0.00 0.00 0.00 71 1015.5
20260505172453 63 229 4.0 16.0 0.00 0.00 0.00 71 1015.4
20260505172431 63 219 4.0 16.0 0.00 0.00 0.00 71 1015.4
20260505172116 63 219 5.0 16.0 0.00 0.00 0.00 71 1015.5
20260505172105 63 142 5.0 16.0 0.00 0.00 0.00 71 1015.5
20260505171846 63 248 5.0 16.0 0.00 0.00 0.00 70 1015.5
20260505171744 63 209 4.0 16.0 0.00 0.00 0.00 70 1015.4
20260505171647 64 192 4.0 16.0 0.00 0.00 0.00 70 1015.5
20260505171540 64 144 4.0 16.0 0.00 0.00 0.00 70 1015.4
20260505171439 64 207 4.0 16.0 0.00 0.00 0.00 69 1015.4
20260505171339 64 190 4.0 16.0 0.00 0.00 0.00 70 1015.4
20260505171316 64 213 4.0 16.0 0.00 0.00 0.00 69 1015.3
20260505171305 64 244 4.0 16.0 0.00 0.00 0.00 69 1015.3
20260505171028 64 136 4.0 16.0 0.00 0.00 0.00 71 1015.4
20260505171000 64 240 5.0 16.0 0.00 0.00 0.00 70 1015.4
20260505170950 64 205 4.0 16.0 0.00 0.00 0.00 71 1015.5
20260505170731 64 141 5.0 22.0 0.00 0.00 0.00 69 1015.6
20260505170655 64 204 7.0 26.0 0.00 0.00 0.00 69 1015.6
20260505170645 64 86 6.0 24.0 0.00 0.00 0.00 68 1015.6
20260505170457 64 207 7.0 26.0 0.00 0.00 0.00 69 1015.6
20260505170447 64 225 7.0 26.0 0.00 0.00 0.00 69 1015.6
20260505170259 64 192 7.0 26.0 0.00 0.00 0.00 68 1015.6
20260505170246 64 182 7.0 26.0 0.00 0.00 0.00 68 1015.6
20260505170017 64 257 7.0 26.0 0.00 0.00 0.00 67 1015.5
20260505165917 64 188 7.0 26.0 0.00 0.00 0.00 68 1015.4
20260505165817 64 214 7.0 26.0 0.00 0.00 0.00 68 1015.4
20260505165718 64 192 6.0 26.0 0.00 0.00 0.00 69 1015.5
20260505165617 64 184 6.0 18.0 0.00 0.00 0.00 70 1015.6
20260505165512 64 240 5.0 18.0 0.00 0.00 0.00 68 1015.6
20260505165411 64 234 5.0 16.0 0.00 0.00 0.00 68 1015.6
20260505165309 64 209 5.0 16.0 0.00 0.00 0.00 69 1015.6
20260505165243 64 202 5.0 16.0 0.00 0.00 0.00 70 1015.5
20260505165231 64 188 5.0 16.0 0.00 0.00 0.00 68 1015.5
20260505165023 64 311 4.0 18.0 0.00 0.00 0.00 70 1015.6
20260505165012 64 171 4.0 18.0 0.00 0.00 0.00 70 1015.6
20260505164951 64 112 4.0 18.0 0.00 0.00 0.00 69 1015.6
20260505164828 64 211 4.0 18.0 0.00 0.00 0.00 70 1015.6
20260505164606 64 178 4.0 18.0 0.00 0.00 0.00 70 1015.6
20260505164506 64 169 5.0 18.0 0.00 0.00 0.00 70 1015.6
20260505164406 64 159 5.0 18.0 0.00 0.00 0.00 70 1015.6
20260505164335 64 212 5.0 18.0 0.00 0.00 0.00 70 1015.6
20260505164325 64 189 5.0 18.0 0.00 0.00 0.00 70 1015.6
20260505164105 64 142 4.0 18.0 0.00 0.00 0.00 70 1015.6
20260505164039 64 211 5.0 20.0 0.00 0.00 0.00 70 1015.5
20260505164027 64 216 5.0 20.0 0.00 0.00 0.00 70 1015.6
20260505163835 64 188 5.0 20.0 0.00 0.00 0.00 69 1015.7
20260505163824 64 167 5.0 20.0 0.00 0.00 0.00 70 1015.6
20260505163602 64 187 5.0 20.0 0.00 0.00 0.00 69 1015.6
20260505163501 64 204 5.0 20.0 0.00 0.00 0.00 71 1015.7
20260505163405 64 165 5.0 20.0 0.00 0.00 0.00 70 1015.7
20260505163302 64 211 5.0 20.0 0.00 0.00 0.00 69 1015.8
20260505163236 64 223 5.0 20.0 0.00 0.00 0.00 68 1015.7
20260505163224 64 172 5.0 20.0 0.00 0.00 0.00 69 1015.8
20260505163001 64 117 4.0 15.0 0.00 0.00 0.00 70 1015.8
20260505162900 64 186 4.0 15.0 0.00 0.00 0.00 70 1015.9
20260505162800 64 186 4.0 12.0 0.00 0.00 0.00 69 1015.9
20260505162732 64 85 4.0 12.0 0.00 0.00 0.00 70 1016.0
20260505162722 64 182 4.0 12.0 0.00 0.00 0.00 71 1015.9
20260505162501 64 194 4.0 12.0 0.00 0.00 0.00 69 1015.9
20260505162357 64 171 4.0 12.0 0.00 0.00 0.00 70 1015.9
20260505162330 64 175 4.0 12.0 0.00 0.00 0.00 72 1016.0
20260505162319 64 223 4.0 12.0 0.00 0.00 0.00 71 1015.9
20260505162137 64 180 4.0 12.0 0.00 0.00 0.00 71 1016.0
20260505162123 64 214 4.0 12.0 0.00 0.00 0.00 71 1016.1
20260505161859 64 169 4.0 23.0 0.00 0.00 0.00 71 1016.1
20260505161758 63 213 4.0 23.0 0.00 0.00 0.00 72 1016.2
20260505161657 63 195 4.0 23.0 0.00 0.00 0.00 71 1016.1
20260505161601 63 224 4.0 23.0 0.00 0.00 0.00 70 1016.1
20260505161458 63 121 4.0 23.0 0.00 0.00 0.00 71 1016.2
20260505161415 63 229 4.0 23.0 0.00 0.00 0.00 70 1016.2
20260505161258 63 196 5.0 23.0 0.00 0.00 0.00 70 1016.2
20260505161159 63 186 5.0 23.0 0.00 0.00 0.00 70 1016.1
20260505161100 64 180 5.0 23.0 0.00 0.00 0.00 72 1016.1
20260505160959 64 202 5.0 23.0 0.00 0.00 0.00 71 1016.1
20260505160853 64 219 5.0 19.0 0.00 0.00 0.00 71 1016.1
20260505160808 64 161 5.0 19.0 0.00 0.00 0.00 69 1016.2
20260505160804 64 267 5.0 19.0 0.00 0.00 0.00 70 1016.2
20260505160754 63 69 5.0 19.0 0.00 0.00 0.00 70 1016.2
20260505160733 64 222 5.0 19.0 0.00 0.00 0.00 70 1016.1
20260505160354 64 192 5.0 19.0 0.00 0.00 0.00 70 1016.1
20260505160251 64 219 5.0 19.0 0.00 0.00 0.00 71 1016.2
20260505160153 64 129 5.0 19.0 0.00 0.00 0.00 71 1016.2
20260505153344 63 200 4.0 13.0 0.00 0.00 0.00 73 1015.7
20260505153244 63 209 4.0 13.0 0.00 0.00 0.00 74 1015.7
20260505153144 63 208 4.0 13.0 0.00 0.00 0.00 74 1015.7
20260505153041 63 275 4.0 13.0 0.00 0.00 0.00 72 1015.7
20260505152933 63 194 4.0 13.0 0.00 0.00 0.00 73 1015.7
20260505152835 63 170 4.0 13.0 0.00 0.00 0.00 73 1015.7
20260505152735 63 196 4.0 13.0 0.00 0.00 0.00 73 1015.7
20260505152633 63 170 4.0 13.0 0.00 0.00 0.00 73 1015.7
20260505152541 63 193 4.0 13.0 0.00 0.00 0.00 73 1015.7
20260505152430 62 83 3.0 13.0 0.00 0.00 0.00 74 1015.7
20260505152331 62 211 3.0 11.0 0.00 0.00 0.00 74 1015.6
20260505152225 62 213 3.0 11.0 0.00 0.00 0.00 74 1015.7
20260505152125 62 186 3.0 11.0 0.00 0.00 0.00 74 1015.7
20260505152028 62 205 3.0 11.0 0.00 0.00 0.00 74 1015.7
20260505151925 62 190 3.0 11.0 0.00 0.00 0.00 74 1015.6
20260505151856 62 183 3.0 11.0 0.00 0.00 0.00 74 1015.6
20260505151846 62 234 3.0 11.0 0.00 0.00 0.00 73 1015.6
20260505151655 62 222 4.0 15.0 0.00 0.00 0.00 74 1015.6
20260505151645 62 218 4.0 11.0 0.00 0.00 0.00 75 1015.7
20260505151424 62 202 4.0 15.0 0.00 0.00 0.00 73 1015.6
20260505151324 62 196 4.0 15.0 0.00 0.00 0.00 74 1015.5
20260505151224 62 190 4.0 15.0 0.00 0.00 0.00 74 1015.6
20260505151152 62 194 4.0 15.0 0.00 0.00 0.00 74 1015.5
20260505151144 62 126 4.0 15.0 0.00 0.00 0.00 74 1015.4
20260505150922 62 192 5.0 15.0 0.00 0.00 0.00 73 1015.5
20260505150823 62 209 5.0 15.0 0.00 0.00 0.00 74 1015.5
20260505150716 62 180 5.0 15.0 0.00 0.00 0.00 75 1015.6
20260505150617 62 163 4.0 15.0 0.00 0.00 0.00 75 1015.5
20260505150517 61 174 4.0 12.0 0.00 0.00 0.00 75 1015.4
20260505150416 61 196 4.0 12.0 0.00 0.00 0.00 74 1015.5
20260505150317 61 149 4.0 12.0 0.00 0.00 0.00 75 1015.5
20260505150214 61 188 4.0 12.0 0.00 0.00 0.00 74 1015.5
20260505150114 61 219 4.0 12.0 0.00 0.00 0.00 74 1015.5
20260505140545 58 198 4.0 15.0 0.00 0.00 0.00 76 1015.0
20260505140536 58 213 4.0 15.0 0.00 0.00 0.00 76 1015.1
20260505140315 58 196 4.0 15.0 0.00 0.00 0.00 77 1015.1
20260505140213 58 192 4.0 15.0 0.00 0.00 0.00 77 1015.0
20260505140113 58 200 4.0 15.0 0.00 0.00 0.00 76 1015.0
20260505130231 57 221 4.0 10.0 0.00 0.00 0.00 75 1014.8
20260505124944 57 210 5.0 14.0 0.00 0.00 0.00 73 1015.2
20260505124843 57 230 5.0 14.0 0.00 0.00 0.00 73 1015.2
20260505124743 57 207 5.0 15.0 0.00 0.00 0.00 73 1015.3
20260505124714 57 186 5.0 15.0 0.00 0.00 0.00 73 1015.3
20260505124704 57 211 5.0 15.0 0.00 0.00 0.00 73 1015.4
20260505124444 57 207 5.0 15.0 0.00 0.00 0.00 73 1015.4
20260505124343 57 198 5.0 15.0 0.00 0.00 0.00 73 1015.5
20260505124316 57 192 5.0 15.0 0.00 0.00 0.00 73 1015.4
20260505124306 57 183 5.0 15.0 0.00 0.00 0.00 73 1015.4
20260505124105 57 211 5.0 21.0 0.00 0.00 0.00 73 1015.5
20260505124100 57 202 5.0 21.0 0.00 0.00 0.00 73 1015.5
20260505124049 57 80 5.0 15.0 0.00 0.00 0.00 73 1015.4
20260505124027 57 206 5.0 21.0 0.00 0.00 0.00 73 1015.4
20260505123645 57 194 5.0 21.0 0.00 0.00 0.00 72 1015.4
20260505123556 57 210 5.0 21.0 0.00 0.00 0.00 73 1015.5
20260505123550 57 161 5.0 21.0 0.00 0.00 0.00 73 1015.4
20260505123537 57 215 5.0 21.0 0.00 0.00 0.00 73 1015.4
20260505123516 57 180 5.0 21.0 0.00 0.00 0.00 73 1015.4
20260505123135 57 190 5.0 21.0 0.00 0.00 0.00 72 1015.3
20260505123036 57 198 4.0 21.0 0.00 0.00 0.00 72 1015.3
20260505122936 57 209 5.0 15.0 0.00 0.00 0.00 73 1015.4
20260505122835 57 182 5.0 17.0 0.00 0.00 0.00 73 1015.4
20260505122737 57 208 5.0 17.0 0.00 0.00 0.00 72 1015.3
20260505122711 57 191 5.0 17.0 0.00 0.00 0.00 72 1015.3
20260505122700 57 165 5.0 17.0 0.00 0.00 0.00 72 1015.4
20260505122435 57 199 5.0 17.0 0.00 0.00 0.00 72 1015.3
20260505122338 57 200 5.0 17.0 0.00 0.00 0.00 72 1015.3
20260505122237 57 211 5.0 17.0 0.00 0.00 0.00 72 1015.2
20260505122136 57 197 5.0 17.0 0.00 0.00 0.00 72 1015.2
20260505122035 57 220 5.0 17.0 0.00 0.00 0.00 72 1015.2
20260505121936 57 237 5.0 17.0 0.00 0.00 0.00 72 1015.2
20260505121837 57 207 5.0 11.0 0.00 0.00 0.00 71 1015.2
20260505121753 57 197 4.0 16.0 0.00 0.00 0.00 72 1015.1
20260505121741 57 196 4.0 11.0 0.00 0.00 0.00 71 1015.2
20260505121720 57 209 4.0 10.0 0.00 0.00 0.00 71 1015.1
20260505121559 57 176 5.0 16.0 0.00 0.00 0.00 71 1015.1
20260505121335 57 208 5.0 16.0 0.00 0.00 0.00 71 1015.0
20260505121307 57 191 5.0 16.0 0.00 0.00 0.00 70 1014.8
20260505121256 57 222 5.0 16.0 0.00 0.00 0.00 70 1014.8
20260505121035 57 210 5.0 16.0 0.00 0.00 0.00 70 1014.8
20260505120933 57 194 5.0 16.0 0.00 0.00 0.00 71 1014.7
20260505120835 57 181 5.0 16.0 0.00 0.00 0.00 70 1014.8
20260505120733 57 229 5.0 16.0 0.00 0.00 0.00 70 1014.6
20260505120633 57 213 5.0 16.0 0.00 0.00 0.00 70 1014.7
20260505120538 57 205 5.0 14.0 0.00 0.00 0.00 70 1014.6
20260505120433 57 215 5.0 12.0 0.00 0.00 0.00 70 1014.6
20260505120333 57 190 5.0 12.0 0.00 0.00 0.00 70 1014.6
20260505120230 57 192 5.0 12.0 0.00 0.00 0.00 70 1014.5
20260505120130 57 200 5.0 12.0 0.00 0.00 0.00 70 1014.5
20260505120028 56 153 5.0 12.0 0.00 0.00 0.00 71 1014.5
20260505115927 56 209 5.0 12.0 0.00 0.00 0.00 71 1014.5
20260505115826 56 207 5.0 12.0 0.00 0.00 0.00 71 1014.5
20260505115757 56 211 5.0 16.0 0.00 0.00 0.00 71 1014.4
20260505115747 56 214 5.0 16.0 0.00 0.00 0.00 71 1014.6
20260505115602 56 193 5.0 16.0 0.00 0.00 0.00 71 1014.5
20260505115549 56 173 5.0 16.0 0.00 0.00 0.00 71 1014.6
20260505115400 56 215 5.0 16.0 0.00 0.00 0.00 71 1014.4
20260505115347 56 190 5.0 16.0 0.00 0.00 0.00 71 1014.4
20260505115125 56 180 5.0 16.0 0.00 0.00 0.00 71 1014.4
20260505115024 56 223 5.0 16.0 0.00 0.00 0.00 71 1014.4
20260505114923 56 215 5.0 16.0 0.00 0.00 0.00 70 1014.5
20260505114825 56 197 5.0 16.0 0.00 0.00 0.00 71 1014.4
20260505114725 56 201 5.0 13.0 0.00 0.00 0.00 70 1014.4
20260505114624 56 207 5.0 11.0 0.00 0.00 0.00 70 1014.4
20260505114519 56 206 5.0 14.0 0.00 0.00 0.00 70 1014.3
20260505114417 57 222 5.0 14.0 0.00 0.00 0.00 70 1014.3
20260505114318 57 199 5.0 14.0 0.00 0.00 0.00 70 1014.3
20260505114219 57 198 5.0 14.0 0.00 0.00 0.00 70 1014.3
20260505114145 57 166 6.0 14.0 0.00 0.00 0.00 70 1014.2
20260505114136 57 196 5.0 14.0 0.00 0.00 0.00 70 1014.2
20260505113914 57 212 5.0 21.0 0.00 0.00 0.00 70 1014.2
20260505113812 57 151 5.0 21.0 0.00 0.00 0.00 69 1014.2
20260505113711 57 199 6.0 21.0 0.00 0.00 0.00 69 1014.2
20260505113611 57 207 6.0 21.0 0.00 0.00 0.00 69 1014.1
20260505113507 57 200 6.0 21.0 0.00 0.00 0.00 69 1014.1
20260505113406 57 190 5.0 21.0 0.00 0.00 0.00 69 1014.1
20260505113305 57 189 6.0 21.0 0.00 0.00 0.00 69 1014.1
20260505113204 57 202 6.0 21.0 0.00 0.00 0.00 69 1014.1
20260505113120 57 191 5.0 16.0 0.00 0.00 0.00 69 1014.1
20260505113108 57 199 5.0 21.0 0.00 0.00 0.00 69 1014.1
20260505113059 57 210 5.0 16.0 0.00 0.00 0.00 69 1014.1
20260505112827 57 203 5.0 12.0 0.00 0.00 0.00 69 1014.2
20260505112817 57 206 5.0 14.0 0.00 0.00 0.00 70 1014.1
20260505112556 57 203 5.0 12.0 0.00 0.00 0.00 69 1014.1
20260505112450 57 209 5.0 12.0 0.00 0.00 0.00 69 1014.1
20260505112350 57 208 5.0 11.0 0.00 0.00 0.00 69 1014.0
20260505112250 57 157 5.0 12.0 0.00 0.00 0.00 69 1014.0
20260505112149 57 187 5.0 12.0 0.00 0.00 0.00 69 1014.0
20260505112049 57 180 5.0 12.0 0.00 0.00 0.00 69 1014.0
20260505111944 57 216 5.0 12.0 0.00 0.00 0.00 69 1014.1
20260505111844 57 217 6.0 13.0 0.00 0.00 0.00 68 1014.1
20260505111742 57 162 6.0 13.0 0.00 0.00 0.00 69 1014.0
20260505111642 57 211 6.0 20.0 0.00 0.00 0.00 68 1014.1
20260505111543 57 190 6.0 20.0 0.00 0.00 0.00 68 1014.1
20260505111444 57 149 6.0 20.0 0.00 0.00 0.00 68 1014.1
20260505111343 57 216 6.0 20.0 0.00 0.00 0.00 68 1014.0
20260505111242 57 190 6.0 20.0 0.00 0.00 0.00 68 1014.0
20260505111204 57 220 6.0 20.0 0.00 0.00 0.00 68 1013.9
20260505111158 57 220 6.0 20.0 0.00 0.00 0.00 68 1013.9
20260505111145 57 196 6.0 20.0 0.00 0.00 0.00 68 1014.0
20260505111120 57 173 6.0 20.0 0.00 0.00 0.00 68 1013.9
20260505110739 57 208 6.0 20.0 0.00 0.00 0.00 68 1013.9
20260505110639 57 230 6.0 14.0 0.00 0.00 0.00 68 1013.9
20260505110539 57 200 6.0 14.0 0.00 0.00 0.00 68 1013.9
20260505110440 57 201 6.0 14.0 0.00 0.00 0.00 68 1013.9
20260505110410 57 287 6.0 13.0 0.00 0.00 0.00 68 1013.9
20260505110358 57 206 6.0 14.0 0.00 0.00 0.00 68 1014.0
20260505110138 57 204 6.0 19.0 0.00 0.00 0.00 68 1013.9